Time,TemperatureF,DewpointF,PressureIn,WindDirection,WindDirectionDegrees,WindSpeedMPH,WindSpeedGustMPH,Humidity,HourlyPrecipIn,Conditions,Clouds,dailyrainin,SoftwareType,DateUTC
2013-02-06 00:00:00,39.9,29.9,29.93,West,270,0.0,0.0,67,0.00,,,43.52,VWS V14.01,2013-02-06 05:00:00,
2013-02-06 00:01:00,39.9,29.9,29.93,West,270,0.0,0.0,67,0.00,,,0.00,VWS V14.01,2013-02-06 05:01:00,
2013-02-06 00:05:00,39.5,29.5,29.93,West,270,0.0,0.0,67,0.00,,,0.00,VWS V14.01,2013-02-06 05:05:00,
2013-02-06 00:06:00,39.5,29.5,29.93,West,270,0.0,0.0,67,0.00,,,0.00,VWS V14.01,2013-02-06 05:06:00,
2013-02-06 00:10:00,39.2,29.5,29.93,West,270,0.0,0.0,68,0.00,,,0.00,VWS V14.01,2013-02-06 05:10:00,
2013-02-06 00:11:00,39.0,29.4,29.93,West,270,0.0,0.0,68,0.00,,,0.00,VWS V14.01,2013-02-06 05:11:00,
2013-02-06 00:12:00,39.0,29.4,29.93,West,270,0.0,0.0,68,0.00,,,0.00,VWS V14.01,2013-02-06 05:12:00,
2013-02-06 00:15:00,38.8,29.2,29.93,West,270,0.0,0.0,68,0.00,,,0.00,VWS V14.01,2013-02-06 05:15:00,
2013-02-06 00:16:00,38.8,29.5,29.93,West,270,0.0,0.0,69,0.00,,,0.00,VWS V14.01,2013-02-06 05:16:00,
2013-02-06 00:17:00,38.8,29.5,29.93,West,270,0.0,0.0,69,0.00,,,0.00,VWS V14.01,2013-02-06 05:17:00,
2013-02-06 00:18:00,38.4,29.1,29.93,West,270,0.0,0.0,69,0.00,,,0.00,VWS V14.01,2013-02-06 05:18:00,
2013-02-06 00:21:00,38.4,29.1,29.93,West,270,0.0,0.0,69,0.00,,,0.00,VWS V14.01,2013-02-06 05:21:00,
2013-02-06 00:22:00,38.3,29.0,29.93,West,270,0.0,0.0,69,0.00,,,0.00,VWS V14.01,2013-02-06 05:22:00,
2013-02-06 00:23:00,38.1,28.8,29.93,West,270,0.0,0.0,69,0.00,,,0.00,VWS V14.01,2013-02-06 05:23:00,
2013-02-06 00:27:00,37.9,28.6,29.93,West,270,0.0,0.0,69,0.00,,,0.00,VWS V14.01,2013-02-06 05:27:00,
2013-02-06 00:28:00,37.9,29.0,29.93,West,270,0.0,0.0,70,0.00,,,0.00,VWS V14.01,2013-02-06 05:28:00,
2013-02-06 00:29:00,37.9,29.0,29.93,West,270,0.0,0.0,70,0.00,,,0.00,VWS V14.01,2013-02-06 05:29:00,
2013-02-06 00:33:00,37.7,28.8,29.93,West,270,0.0,0.0,70,0.00,,,0.00,VWS V14.01,2013-02-06 05:33:00,
2013-02-06 00:34:00,37.5,28.6,29.93,West,270,0.0,0.0,70,0.00,,,0.00,VWS V14.01,2013-02-06 05:34:00,
2013-02-06 00:35:00,37.5,28.6,29.93,West,270,0.0,0.0,70,0.00,,,0.00,VWS V14.01,2013-02-06 05:35:00,
2013-02-06 00:38:00,37.2,28.3,29.93,West,270,0.0,0.0,70,0.00,,,0.00,VWS V14.01,2013-02-06 05:38:00,
2013-02-06 00:39:00,37.2,28.3,29.93,West,270,0.0,0.0,70,0.00,,,0.00,VWS V14.01,2013-02-06 05:39:00,
2013-02-06 00:40:00,37.2,28.7,29.93,West,270,0.0,0.0,71,0.00,,,0.00,VWS V14.01,2013-02-06 05:40:00,
2013-02-06 00:45:00,37.2,28.4,39.22,North,0,0.0,0.0,70,0.00,,,0.00,VWS V14.01,2013-02-06 05:45:00,
2013-02-06 00:46:00,36.8,28.3,29.93,West,270,0.0,0.0,71,0.00,,,43.52,VWS V14.01,2013-02-06 05:46:00,
2013-02-06 00:50:00,36.6,28.1,29.93,West,270,0.0,0.0,71,0.00,,,43.52,VWS V14.01,2013-02-06 05:50:00,
2013-02-06 00:51:00,36.6,28.4,29.93,West,270,0.0,0.0,72,0.00,,,43.52,VWS V14.01,2013-02-06 05:51:00,
2013-02-06 00:52:00,36.6,28.4,29.93,West,270,0.0,0.0,72,0.00,,,43.52,VWS V14.01,2013-02-06 05:52:00,
2013-02-06 00:56:00,36.5,28.4,29.93,West,270,0.0,0.0,72,0.00,,,43.52,VWS V14.01,2013-02-06 05:56:00,
2013-02-06 00:57:00,36.5,28.4,29.93,West,270,0.0,0.0,72,0.00,,,43.52,VWS V14.01,2013-02-06 05:57:00,
2013-02-06 01:01:00,36.3,28.5,29.93,West,270,0.0,0.0,73,0.00,,,43.52,VWS V14.01,2013-02-06 06:01:00,
2013-02-06 01:02:00,36.3,28.5,29.93,West,270,0.0,0.0,73,0.00,,,43.52,VWS V14.01,2013-02-06 06:02:00,
2013-02-06 01:03:00,36.3,28.5,29.93,West,270,0.0,0.0,73,0.00,,,43.52,VWS V14.01,2013-02-06 06:03:00,
2013-02-06 01:06:00,36.3,28.5,29.93,West,270,0.0,0.0,73,0.00,,,43.52,VWS V14.01,2013-02-06 06:06:00,
2013-02-06 01:07:00,36.3,28.5,29.93,West,270,0.0,0.0,73,0.00,,,43.52,VWS V14.01,2013-02-06 06:07:00,
2013-02-06 01:08:00,36.1,28.3,29.93,West,270,0.0,0.0,73,0.00,,,43.52,VWS V14.01,2013-02-06 06:08:00,
2013-02-06 01:09:00,36.1,28.3,29.93,West,270,0.0,0.0,73,0.00,,,43.52,VWS V14.01,2013-02-06 06:09:00,
2013-02-06 01:12:00,36.1,28.6,29.92,West,270,0.0,0.0,74,0.00,,,43.52,VWS V14.01,2013-02-06 06:12:00,
2013-02-06 01:14:00,36.1,28.6,29.93,West,270,0.0,0.0,74,0.00,,,43.52,VWS V14.01,2013-02-06 06:14:00,
2013-02-06 01:16:00,36.1,28.6,29.92,West,270,0.0,0.0,74,0.00,,,43.52,VWS V14.01,2013-02-06 06:16:00,
2013-02-06 01:17:00,35.9,28.4,29.92,West,270,0.0,0.0,74,0.00,,,43.52,VWS V14.01,2013-02-06 06:17:00,
2013-02-06 01:18:00,35.9,28.4,29.92,West,270,0.0,0.0,74,0.00,,,43.52,VWS V14.01,2013-02-06 06:18:00,
2013-02-06 01:20:00,35.9,28.4,29.93,West,270,0.0,0.0,74,0.00,,,43.52,VWS V14.01,2013-02-06 06:20:00,
2013-02-06 01:22:00,35.7,28.2,29.92,West,270,0.0,0.0,74,0.00,,,43.52,VWS V14.01,2013-02-06 06:22:00,
2013-02-06 01:23:00,35.7,28.2,29.92,West,270,0.0,0.0,74,0.00,,,43.52,VWS V14.01,2013-02-06 06:23:00,
2013-02-06 01:24:00,35.7,28.2,29.92,West,270,0.0,0.0,74,0.00,,,43.52,VWS V14.01,2013-02-06 06:24:00,
2013-02-06 01:27:00,35.7,28.2,29.92,West,270,0.0,0.0,74,0.00,,,43.52,VWS V14.01,2013-02-06 06:27:00,
2013-02-06 01:28:00,35.7,28.2,29.92,West,270,0.0,0.0,74,0.00,,,43.52,VWS V14.01,2013-02-06 06:28:00,
2013-02-06 01:29:00,35.6,28.1,29.92,West,270,0.0,0.0,74,0.00,,,43.52,VWS V14.01,2013-02-06 06:29:00,
2013-02-06 01:32:00,35.4,28.0,29.93,West,270,0.0,0.0,74,0.00,,,43.52,VWS V14.01,2013-02-06 06:32:00,
2013-02-06 01:34:00,35.4,28.0,29.92,West,270,0.0,0.0,74,0.00,,,43.52,VWS V14.01,2013-02-06 06:34:00,
2013-02-06 01:35:00,35.4,28.0,29.93,West,270,0.0,0.0,74,0.00,,,43.52,VWS V14.01,2013-02-06 06:35:00,
2013-02-06 01:38:00,35.2,28.1,29.92,West,270,0.0,0.0,75,0.00,,,43.52,VWS V14.01,2013-02-06 06:38:00,
2013-02-06 01:39:00,35.2,28.1,29.93,West,270,0.0,0.0,75,0.00,,,43.52,VWS V14.01,2013-02-06 06:39:00,
2013-02-06 01:40:00,35.2,28.1,29.93,West,270,0.0,0.0,75,0.00,,,43.52,VWS V14.01,2013-02-06 06:40:00,
2013-02-06 01:41:00,35.2,28.1,29.93,West,270,0.0,0.0,75,0.00,,,43.52,VWS V14.01,2013-02-06 06:41:00,
2013-02-06 01:44:00,35.0,27.9,29.93,West,270,0.0,0.0,75,0.00,,,43.52,VWS V14.01,2013-02-06 06:44:00,
2013-02-06 01:45:00,34.8,27.7,29.93,West,270,0.0,0.0,75,0.00,,,43.52,VWS V14.01,2013-02-06 06:45:00,
2013-02-06 01:46:00,34.8,27.7,29.93,West,270,0.0,0.0,75,0.00,,,43.52,VWS V14.01,2013-02-06 06:46:00,
2013-02-06 01:50:00,34.8,27.7,29.93,West,270,0.0,0.0,75,0.00,,,43.52,VWS V14.01,2013-02-06 06:50:00,
2013-02-06 01:51:00,34.8,27.7,29.93,West,270,0.0,0.0,75,0.00,,,43.52,VWS V14.01,2013-02-06 06:51:00,
2013-02-06 01:52:00,34.8,27.7,29.93,West,270,0.0,0.0,75,0.00,,,43.52,VWS V14.01,2013-02-06 06:52:00,
2013-02-06 01:55:00,34.7,27.9,29.93,West,270,0.0,0.0,76,0.00,,,43.52,VWS V14.01,2013-02-06 06:55:00,
2013-02-06 01:56:00,34.7,27.9,29.93,West,270,0.0,0.0,76,0.00,,,43.52,VWS V14.01,2013-02-06 06:56:00,
2013-02-06 01:57:00,34.7,27.9,29.93,West,270,0.0,0.0,76,0.00,,,43.52,VWS V14.01,2013-02-06 06:57:00,
2013-02-06 02:00:00,34.3,27.5,29.93,West,270,0.0,0.0,76,0.00,,,43.52,VWS V14.01,2013-02-06 07:00:00,
2013-02-06 02:01:00,34.3,27.5,29.93,West,270,0.0,0.0,76,0.00,,,43.52,VWS V14.01,2013-02-06 07:01:00,
2013-02-06 02:02:00,34.3,27.5,29.93,West,270,0.0,0.0,76,0.00,,,43.52,VWS V14.01,2013-02-06 07:02:00,
2013-02-06 02:03:00,34.3,27.5,29.94,West,270,0.0,0.0,76,0.00,,,43.52,VWS V14.01,2013-02-06 07:03:00,
2013-02-06 02:06:00,34.3,27.5,29.93,West,270,0.0,0.0,76,0.00,,,43.52,VWS V14.01,2013-02-06 07:06:00,
2013-02-06 02:07:00,34.3,27.5,29.94,West,270,0.0,0.0,76,0.00,,,43.52,VWS V14.01,2013-02-06 07:07:00,
2013-02-06 02:08:00,34.3,27.5,29.94,West,270,0.0,0.0,76,0.00,,,43.52,VWS V14.01,2013-02-06 07:08:00,
2013-02-06 02:11:00,34.3,27.5,29.93,West,270,0.0,0.0,76,0.00,,,43.52,VWS V14.01,2013-02-06 07:11:00,
2013-02-06 02:13:00,34.1,27.3,29.94,West,270,0.0,0.0,76,0.00,,,43.52,VWS V14.01,2013-02-06 07:13:00,
2013-02-06 02:14:00,34.1,27.7,29.94,West,270,0.0,0.0,77,0.00,,,43.52,VWS V14.01,2013-02-06 07:14:00,
2013-02-06 02:16:00,33.9,27.5,29.94,West,270,0.0,0.0,77,0.00,,,43.52,VWS V14.01,2013-02-06 07:16:00,
2013-02-06 02:17:00,33.9,27.5,29.94,West,270,0.0,0.0,77,0.00,,,43.52,VWS V14.01,2013-02-06 07:17:00,
2013-02-06 02:18:00,33.9,27.5,29.94,West,270,0.0,0.0,77,0.00,,,43.52,VWS V14.01,2013-02-06 07:18:00,
2013-02-06 02:19:00,33.9,27.5,29.94,West,270,0.0,0.0,77,0.00,,,43.52,VWS V14.01,2013-02-06 07:19:00,
2013-02-06 02:22:00,33.8,27.0,29.94,West,270,0.0,0.0,76,0.00,,,43.52,VWS V14.01,2013-02-06 07:22:00,
2013-02-06 02:23:00,33.8,27.4,29.94,West,270,0.0,0.0,77,0.00,,,43.52,VWS V14.01,2013-02-06 07:23:00,
2013-02-06 02:24:00,33.8,27.4,29.94,West,270,0.0,0.0,77,0.00,,,43.52,VWS V14.01,2013-02-06 07:24:00,
2013-02-06 02:31:00,33.6,27.2,29.95,West,270,0.0,0.0,77,0.00,,,43.52,VWS V14.01,2013-02-06 07:31:00,
2013-02-06 02:32:00,33.6,27.2,29.94,West,270,0.0,0.0,77,0.00,,,43.52,VWS V14.01,2013-02-06 07:32:00,
2013-02-06 02:33:00,33.6,27.2,29.94,West,270,0.0,0.0,77,0.00,,,43.52,VWS V14.01,2013-02-06 07:33:00,
2013-02-06 02:37:00,33.4,27.0,29.95,West,270,0.0,0.0,77,0.00,,,43.52,VWS V14.01,2013-02-06 07:37:00,
2013-02-06 02:38:00,33.4,27.0,29.95,West,270,0.0,0.0,77,0.00,,,43.52,VWS V14.01,2013-02-06 07:38:00,
2013-02-06 02:42:00,33.0,26.9,29.95,West,270,0.0,0.0,78,0.00,,,43.52,VWS V14.01,2013-02-06 07:42:00,
2013-02-06 02:43:00,33.0,26.9,29.95,West,270,0.0,0.0,78,0.00,,,43.52,VWS V14.01,2013-02-06 07:43:00,
2013-02-06 02:47:00,33.0,27.2,29.95,West,270,0.0,0.0,79,0.00,,,43.52,VWS V14.01,2013-02-06 07:47:00,
2013-02-06 02:48:00,33.0,27.2,29.95,West,270,0.0,0.0,79,0.00,,,43.52,VWS V14.01,2013-02-06 07:48:00,
2013-02-06 02:52:00,32.9,27.1,29.95,West,270,0.0,0.0,79,0.00,,,43.52,VWS V14.01,2013-02-06 07:52:00,
2013-02-06 02:53:00,32.9,27.1,29.95,West,270,0.0,0.0,79,0.00,,,43.52,VWS V14.01,2013-02-06 07:53:00,
2013-02-06 02:54:00,32.9,27.1,29.95,West,270,0.0,0.0,79,0.00,,,43.52,VWS V14.01,2013-02-06 07:54:00,
2013-02-06 02:58:00,32.7,26.9,29.96,West,270,0.0,0.0,79,0.00,,,43.52,VWS V14.01,2013-02-06 07:58:00,
2013-02-06 02:59:00,32.7,26.9,29.95,West,270,0.0,0.0,79,0.00,,,43.52,VWS V14.01,2013-02-06 07:59:00,
2013-02-06 03:00:00,32.7,26.9,29.95,West,270,0.0,0.0,79,0.00,,,43.52,VWS V14.01,2013-02-06 08:00:00,
2013-02-06 03:03:00,32.7,26.9,29.95,West,270,0.0,0.0,79,0.00,,,43.52,VWS V14.01,2013-02-06 08:03:00,
2013-02-06 03:04:00,32.5,26.7,29.96,West,270,0.0,0.0,79,0.00,,,43.52,VWS V14.01,2013-02-06 08:04:00,
2013-02-06 03:05:00,32.5,26.7,29.96,West,270,0.0,0.0,79,0.00,,,43.52,VWS V14.01,2013-02-06 08:05:00,
2013-02-06 03:08:00,32.5,27.0,29.95,North,0,0.0,0.0,80,0.00,,,43.52,VWS V14.01,2013-02-06 08:08:00,
2013-02-06 03:10:00,32.5,27.0,29.95,North,0,0.0,0.0,80,0.00,,,43.52,VWS V14.01,2013-02-06 08:10:00,
2013-02-06 03:13:00,32.7,27.2,29.95,North,0,0.0,0.0,80,0.00,,,43.52,VWS V14.01,2013-02-06 08:13:00,
2013-02-06 03:15:00,32.7,27.2,29.95,North,0,0.0,0.0,80,0.00,,,43.52,VWS V14.01,2013-02-06 08:15:00,
2013-02-06 03:19:00,32.7,27.2,29.96,North,0,0.0,0.0,80,0.00,,,43.52,VWS V14.01,2013-02-06 08:19:00,
2013-02-06 03:20:00,32.7,27.2,29.96,North,0,0.0,0.0,80,0.00,,,43.52,VWS V14.01,2013-02-06 08:20:00,
2013-02-06 03:21:00,32.7,27.2,29.96,North,0,0.0,0.0,80,0.00,,,43.52,VWS V14.01,2013-02-06 08:21:00,
2013-02-06 03:22:00,32.7,27.2,29.96,North,0,0.0,0.0,80,0.00,,,43.52,VWS V14.01,2013-02-06 08:22:00,
2013-02-06 03:25:00,32.9,27.4,29.96,North,0,0.0,0.0,80,0.00,,,43.52,VWS V14.01,2013-02-06 08:25:00,
2013-02-06 03:26:00,32.9,27.4,29.97,North,0,0.0,0.0,80,0.00,,,43.52,VWS V14.01,2013-02-06 08:26:00,
2013-02-06 03:27:00,32.9,27.4,29.96,North,0,0.0,0.0,80,0.00,,,43.52,VWS V14.01,2013-02-06 08:27:00,
2013-02-06 03:30:00,32.9,27.4,29.96,North,0,0.0,0.0,80,0.00,,,43.52,VWS V14.01,2013-02-06 08:30:00,
2013-02-06 03:32:00,32.9,27.4,29.96,North,0,0.0,0.0,80,0.00,,,43.52,VWS V14.01,2013-02-06 08:32:00,
2013-02-06 03:34:00,32.9,27.4,29.97,North,0,0.0,0.0,80,0.00,,,43.52,VWS V14.01,2013-02-06 08:34:00,
2013-02-06 03:36:00,32.7,27.2,29.96,North,0,0.0,0.0,80,0.00,,,43.52,VWS V14.01,2013-02-06 08:36:00,
2013-02-06 03:37:00,32.7,27.2,29.97,North,0,0.0,0.0,80,0.00,,,43.52,VWS V14.01,2013-02-06 08:37:00,
2013-02-06 03:38:00,32.7,27.2,29.97,North,0,0.0,0.0,80,0.00,,,43.52,VWS V14.01,2013-02-06 08:38:00,
2013-02-06 03:40:00,32.7,27.2,29.97,North,0,0.0,0.0,80,0.00,,,43.52,VWS V14.01,2013-02-06 08:40:00,
2013-02-06 03:42:00,32.7,27.2,29.97,North,0,0.0,0.0,80,0.00,,,43.52,VWS V14.01,2013-02-06 08:42:00,
2013-02-06 03:43:00,32.5,27.0,29.97,North,0,0.0,0.0,80,0.00,,,43.52,VWS V14.01,2013-02-06 08:43:00,
2013-02-06 03:45:00,32.5,27.0,29.97,North,0,0.0,0.0,80,0.00,,,43.52,VWS V14.01,2013-02-06 08:45:00,
2013-02-06 03:47:00,32.3,26.8,29.97,North,0,0.0,0.0,80,0.00,,,43.52,VWS V14.01,2013-02-06 08:47:00,
2013-02-06 03:48:00,32.3,26.8,29.97,North,0,0.0,0.0,80,0.00,,,43.52,VWS V14.01,2013-02-06 08:48:00,
2013-02-06 03:50:00,32.1,26.6,29.97,North,0,0.0,0.0,80,0.00,,,43.52,VWS V14.01,2013-02-06 08:50:00,
2013-02-06 03:52:00,32.1,26.6,29.97,North,0,0.0,0.0,80,0.00,,,43.52,VWS V14.01,2013-02-06 08:52:00,
2013-02-06 03:53:00,32.1,26.6,29.97,North,0,0.0,0.0,80,0.00,,,43.52,VWS V14.01,2013-02-06 08:53:00,
2013-02-06 03:54:00,32.1,26.6,29.97,North,0,0.0,0.0,80,0.00,,,43.52,VWS V14.01,2013-02-06 08:54:00,
2013-02-06 03:56:00,31.8,26.4,29.97,North,0,0.0,0.0,80,0.00,,,43.52,VWS V14.01,2013-02-06 08:56:00,
2013-02-06 03:58:00,31.8,26.4,29.97,North,0,0.0,0.0,80,0.00,,,43.52,VWS V14.01,2013-02-06 08:58:00,
2013-02-06 03:59:00,31.8,26.4,29.97,North,0,0.0,0.0,80,0.00,,,43.52,VWS V14.01,2013-02-06 08:59:00,
2013-02-06 04:01:00,31.8,26.4,29.97,North,0,0.0,0.0,80,0.00,,,43.52,VWS V14.01,2013-02-06 09:01:00,
2013-02-06 04:04:00,31.6,26.1,29.97,North,0,0.0,0.0,80,0.00,,,43.52,VWS V14.01,2013-02-06 09:04:00,
2013-02-06 04:06:00,31.4,26.0,29.97,North,0,0.0,0.0,80,0.00,,,43.52,VWS V14.01,2013-02-06 09:06:00,
2013-02-06 04:07:00,31.2,25.8,29.97,North,0,0.0,0.0,80,0.00,,,43.52,VWS V14.01,2013-02-06 09:07:00,
2013-02-06 04:09:00,31.2,25.8,29.97,North,0,0.0,0.0,80,0.00,,,43.52,VWS V14.01,2013-02-06 09:09:00,
2013-02-06 04:10:00,31.2,25.8,29.97,North,0,0.0,0.0,80,0.00,,,43.52,VWS V14.01,2013-02-06 09:10:00,
2013-02-06 04:11:00,31.2,25.8,29.97,North,0,0.0,0.0,80,0.00,,,43.52,VWS V14.01,2013-02-06 09:11:00,
2013-02-06 04:12:00,31.1,25.7,29.97,North,0,0.0,0.0,80,0.00,,,43.52,VWS V14.01,2013-02-06 09:12:00,
2013-02-06 04:14:00,30.9,25.5,29.97,North,0,0.0,0.0,80,0.00,,,43.52,VWS V14.01,2013-02-06 09:14:00,
2013-02-06 04:15:00,30.9,25.5,29.97,North,0,0.0,0.0,80,0.00,,,43.52,VWS V14.01,2013-02-06 09:15:00,
2013-02-06 04:16:00,30.9,25.8,29.97,North,0,0.0,0.0,81,0.00,,,43.52,VWS V14.01,2013-02-06 09:16:00,
2013-02-06 04:17:00,30.7,25.6,29.98,North,0,0.0,0.0,81,0.00,,,43.52,VWS V14.01,2013-02-06 09:17:00,
2013-02-06 04:20:00,30.7,25.6,29.98,North,0,0.0,0.0,81,0.00,,,43.52,VWS V14.01,2013-02-06 09:20:00,
2013-02-06 04:21:00,30.7,25.6,29.98,North,0,0.0,0.0,81,0.00,,,43.52,VWS V14.01,2013-02-06 09:21:00,
2013-02-06 04:22:00,30.7,25.6,29.98,North,0,0.0,0.0,81,0.00,,,43.52,VWS V14.01,2013-02-06 09:22:00,
2013-02-06 04:25:00,30.5,25.4,29.98,North,0,0.0,0.0,81,0.00,,,43.52,VWS V14.01,2013-02-06 09:25:00,
2013-02-06 04:26:00,30.5,25.4,29.98,North,0,0.0,0.0,81,0.00,,,43.52,VWS V14.01,2013-02-06 09:26:00,
2013-02-06 04:28:00,30.3,25.2,29.98,North,0,0.0,0.0,81,0.00,,,43.52,VWS V14.01,2013-02-06 09:28:00,
2013-02-06 04:31:00,30.3,25.2,29.98,North,0,0.0,0.0,81,0.00,,,43.52,VWS V14.01,2013-02-06 09:31:00,
2013-02-06 04:32:00,30.2,25.1,29.98,North,0,0.0,0.0,81,0.00,,,43.52,VWS V14.01,2013-02-06 09:32:00,
2013-02-06 04:33:00,30.2,25.1,29.98,North,0,0.0,0.0,81,0.00,,,43.52,VWS V14.01,2013-02-06 09:33:00,
2013-02-06 04:36:00,30.0,24.9,29.98,North,0,0.0,0.0,81,0.00,,,43.52,VWS V14.01,2013-02-06 09:36:00,
2013-02-06 04:37:00,30.0,24.9,29.98,North,0,0.0,0.0,81,0.00,,,43.52,VWS V14.01,2013-02-06 09:37:00,
2013-02-06 04:38:00,30.0,24.9,29.98,North,0,0.0,0.0,81,0.00,,,43.52,VWS V14.01,2013-02-06 09:38:00,
2013-02-06 04:39:00,30.0,24.9,29.98,North,0,0.0,0.0,81,0.00,,,43.52,VWS V14.01,2013-02-06 09:39:00,
2013-02-06 04:40:00,29.8,24.7,39.22,North,0,0.0,0.0,81,0.00,,,43.52,VWS V14.01,2013-02-06 09:40:00,
2013-02-06 04:42:00,29.8,24.7,29.98,North,0,0.0,0.0,81,0.00,,,43.52,VWS V14.01,2013-02-06 09:42:00,
2013-02-06 04:43:00,29.8,24.7,29.98,North,0,0.0,0.0,81,0.00,,,43.52,VWS V14.01,2013-02-06 09:43:00,
2013-02-06 04:44:00,29.8,24.7,29.98,North,0,0.0,0.0,81,0.00,,,43.52,VWS V14.01,2013-02-06 09:44:00,
2013-02-06 04:48:00,29.4,24.6,29.98,North,0,0.0,0.0,82,0.00,,,43.52,VWS V14.01,2013-02-06 09:48:00,
2013-02-06 04:49:00,29.4,24.6,29.98,North,0,0.0,0.0,82,0.00,,,43.52,VWS V14.01,2013-02-06 09:49:00,
2013-02-06 04:51:00,29.4,24.6,29.99,North,0,0.0,0.0,82,0.00,,,43.52,VWS V14.01,2013-02-06 09:51:00,
2013-02-06 04:54:00,29.3,24.5,29.99,North,0,0.0,0.0,82,0.00,,,43.52,VWS V14.01,2013-02-06 09:54:00,
2013-02-06 04:56:00,29.1,24.3,29.99,North,0,0.0,0.0,82,0.00,,,43.52,VWS V14.01,2013-02-06 09:56:00,
2013-02-06 04:59:00,29.1,24.3,29.99,North,0,0.0,0.0,82,0.00,,,43.52,VWS V14.01,2013-02-06 09:59:00,
2013-02-06 05:00:00,29.1,24.3,29.99,North,0,0.0,0.0,82,0.00,,,43.52,VWS V14.01,2013-02-06 10:00:00,
2013-02-06 05:02:00,28.9,24.1,29.99,North,0,0.0,0.0,82,0.00,,,43.52,VWS V14.01,2013-02-06 10:02:00,
2013-02-06 05:08:00,28.7,24.2,30.00,North,0,0.0,0.0,83,0.00,,,43.52,VWS V14.01,2013-02-06 10:08:00,
2013-02-06 05:09:00,28.7,24.2,30.00,North,0,0.0,0.0,83,0.00,,,43.52,VWS V14.01,2013-02-06 10:09:00,
2013-02-06 05:14:00,28.5,24.0,30.00,North,0,0.0,0.0,83,0.00,,,43.52,VWS V14.01,2013-02-06 10:14:00,
2013-02-06 05:15:00,28.5,23.7,30.00,North,0,0.0,0.0,82,0.00,,,43.52,VWS V14.01,2013-02-06 10:15:00,
2013-02-06 05:19:00,28.4,23.6,30.00,North,0,0.0,0.0,82,0.00,,,43.52,VWS V14.01,2013-02-06 10:19:00,
2013-02-06 05:20:00,28.4,23.6,30.00,North,0,0.0,0.0,82,0.00,,,43.52,VWS V14.01,2013-02-06 10:20:00,
2013-02-06 05:21:00,28.2,23.4,30.00,North,0,0.0,0.0,82,0.00,,,43.52,VWS V14.01,2013-02-06 10:21:00,
2013-02-06 05:25:00,28.2,23.7,30.01,North,0,0.0,0.0,83,0.00,,,43.52,VWS V14.01,2013-02-06 10:25:00,
2013-02-06 05:26:00,28.2,23.7,30.01,North,0,0.0,0.0,83,0.00,,,43.52,VWS V14.01,2013-02-06 10:26:00,
2013-02-06 05:27:00,28.2,23.7,30.01,North,0,0.0,0.0,83,0.00,,,43.52,VWS V14.01,2013-02-06 10:27:00,
2013-02-06 05:30:00,28.0,23.5,30.01,North,0,0.0,0.0,83,0.00,,,43.52,VWS V14.01,2013-02-06 10:30:00,
2013-02-06 05:31:00,28.0,23.5,30.01,North,0,0.0,0.0,83,0.00,,,43.52,VWS V14.01,2013-02-06 10:31:00,
2013-02-06 05:32:00,28.0,23.5,30.01,North,0,0.0,0.0,83,0.00,,,43.52,VWS V14.01,2013-02-06 10:32:00,
2013-02-06 05:35:00,28.0,23.5,30.01,North,0,0.0,0.0,83,0.00,,,43.52,VWS V14.01,2013-02-06 10:35:00,
2013-02-06 05:36:00,28.0,23.5,30.01,North,0,0.0,0.0,83,0.00,,,43.52,VWS V14.01,2013-02-06 10:36:00,
2013-02-06 05:38:00,27.8,23.3,30.02,North,0,0.0,0.0,83,0.00,,,43.52,VWS V14.01,2013-02-06 10:38:00,
2013-02-06 05:41:00,27.6,23.1,30.02,North,0,0.0,0.0,83,0.00,,,43.52,VWS V14.01,2013-02-06 10:41:00,
2013-02-06 05:43:00,27.6,23.1,30.02,North,0,0.0,0.0,83,0.00,,,43.52,VWS V14.01,2013-02-06 10:43:00,
2013-02-06 05:46:00,27.6,23.1,30.02,North,0,0.0,0.0,83,0.00,,,43.52,VWS V14.01,2013-02-06 10:46:00,
2013-02-06 05:47:00,27.6,23.1,30.02,North,0,0.0,0.0,83,0.00,,,43.52,VWS V14.01,2013-02-06 10:47:00,
2013-02-06 05:50:00,27.5,23.0,30.02,North,0,0.0,0.0,83,0.00,,,43.52,VWS V14.01,2013-02-06 10:50:00,
2013-02-06 05:52:00,27.5,23.0,30.02,North,0,0.0,0.0,83,0.00,,,43.52,VWS V14.01,2013-02-06 10:52:00,
2013-02-06 05:53:00,27.5,23.0,30.02,North,0,0.0,0.0,83,0.00,,,43.52,VWS V14.01,2013-02-06 10:53:00,
2013-02-06 05:55:00,27.5,23.0,30.02,North,0,0.0,0.0,83,0.00,,,43.52,VWS V14.01,2013-02-06 10:55:00,
2013-02-06 05:57:00,27.5,23.0,30.03,North,0,0.0,0.0,83,0.00,,,43.52,VWS V14.01,2013-02-06 10:57:00,
2013-02-06 05:58:00,27.5,23.3,30.03,North,0,0.0,0.0,84,0.00,,,43.52,VWS V14.01,2013-02-06 10:58:00,
2013-02-06 06:01:00,27.5,23.3,30.03,North,0,0.0,0.0,84,0.00,,,43.52,VWS V14.01,2013-02-06 11:01:00,
2013-02-06 06:02:00,27.5,23.3,30.03,North,0,0.0,0.0,84,0.00,,,43.52,VWS V14.01,2013-02-06 11:02:00,
2013-02-06 06:03:00,27.5,23.3,30.03,North,0,0.0,0.0,84,0.00,,,43.52,VWS V14.01,2013-02-06 11:03:00,
2013-02-06 06:04:00,27.5,23.3,30.03,North,0,0.0,0.0,84,0.00,,,43.52,VWS V14.01,2013-02-06 11:04:00,
2013-02-06 06:07:00,27.5,23.3,30.03,North,0,0.0,0.0,84,0.00,,,43.52,VWS V14.01,2013-02-06 11:07:00,
2013-02-06 06:08:00,27.5,23.3,30.04,North,0,0.0,0.0,84,0.00,,,43.52,VWS V14.01,2013-02-06 11:08:00,
2013-02-06 06:09:00,27.5,23.3,30.04,North,0,0.0,0.0,84,0.00,,,43.52,VWS V14.01,2013-02-06 11:09:00,
2013-02-06 06:10:00,27.5,23.3,30.04,North,0,0.0,0.0,84,0.00,,,43.52,VWS V14.01,2013-02-06 11:10:00,
2013-02-06 06:12:00,27.5,23.3,30.04,North,0,0.0,0.0,84,0.00,,,43.52,VWS V14.01,2013-02-06 11:12:00,
2013-02-06 06:14:00,27.5,23.3,30.03,North,0,0.0,0.0,84,0.00,,,43.52,VWS V14.01,2013-02-06 11:14:00,
2013-02-06 06:15:00,27.5,23.3,30.03,North,0,0.0,0.0,84,0.00,,,43.52,VWS V14.01,2013-02-06 11:15:00,
2013-02-06 06:17:00,27.5,23.3,30.04,North,0,0.0,0.0,84,0.00,,,43.52,VWS V14.01,2013-02-06 11:17:00,
2013-02-06 06:19:00,27.5,23.3,30.04,North,0,0.0,0.0,84,0.00,,,43.52,VWS V14.01,2013-02-06 11:19:00,
2013-02-06 06:20:00,27.5,23.3,30.04,North,0,0.0,0.0,84,0.00,,,43.52,VWS V14.01,2013-02-06 11:20:00,
2013-02-06 06:22:00,27.5,23.3,30.04,NNW,338,0.0,0.0,84,0.00,,,43.52,VWS V14.01,2013-02-06 11:22:00,
2013-02-06 06:25:00,27.5,23.3,30.04,NNW,338,0.0,0.0,84,0.00,,,43.52,VWS V14.01,2013-02-06 11:25:00,
2013-02-06 06:26:00,27.5,23.3,30.04,NNW,338,0.0,0.0,84,0.00,,,43.52,VWS V14.01,2013-02-06 11:26:00,
2013-02-06 06:29:00,27.3,23.1,30.04,NNW,338,0.0,0.0,84,0.00,,,43.52,VWS V14.01,2013-02-06 11:29:00,
2013-02-06 06:31:00,27.1,22.9,30.04,NNW,338,0.0,0.0,84,0.00,,,43.52,VWS V14.01,2013-02-06 11:31:00,
2013-02-06 06:32:00,27.1,22.9,30.04,NNW,338,0.0,0.0,84,0.00,,,43.52,VWS V14.01,2013-02-06 11:32:00,
2013-02-06 06:35:00,27.1,22.9,30.05,NNW,338,0.0,0.0,84,0.00,,,43.52,VWS V14.01,2013-02-06 11:35:00,
2013-02-06 06:36:00,27.1,22.9,30.04,NNW,338,0.0,0.0,84,0.00,,,43.52,VWS V14.01,2013-02-06 11:36:00,
2013-02-06 06:37:00,26.9,22.7,30.05,NNW,338,0.0,0.0,84,0.00,,,43.52,VWS V14.01,2013-02-06 11:37:00,
2013-02-06 06:41:00,26.7,22.8,30.05,NNW,338,0.0,0.0,85,0.00,,,43.52,VWS V14.01,2013-02-06 11:41:00,
2013-02-06 06:42:00,26.7,22.8,30.05,NNW,338,0.0,0.0,85,0.00,,,43.52,VWS V14.01,2013-02-06 11:42:00,
2013-02-06 06:47:00,26.7,22.8,30.05,NNW,338,0.0,0.0,85,0.00,,,43.52,VWS V14.01,2013-02-06 11:47:00,
2013-02-06 06:49:00,26.6,22.7,30.05,North,0,0.0,0.0,85,0.00,,,43.52,VWS V14.01,2013-02-06 11:49:00,
2013-02-06 06:52:00,26.6,22.7,30.06,NNW,338,0.0,0.0,85,0.00,,,43.52,VWS V14.01,2013-02-06 11:52:00,
2013-02-06 06:53:00,26.6,22.7,30.06,NNW,338,0.0,0.0,85,0.00,,,43.52,VWS V14.01,2013-02-06 11:53:00,
2013-02-06 06:54:00,26.6,22.7,30.06,NNW,338,0.0,0.0,85,0.00,,,43.52,VWS V14.01,2013-02-06 11:54:00,
2013-02-06 06:58:00,26.6,22.7,30.06,NNW,338,0.0,0.0,85,0.00,,,43.52,VWS V14.01,2013-02-06 11:58:00,
2013-02-06 07:00:00,26.7,22.8,30.07,NNW,338,0.0,0.0,85,0.00,,,43.52,VWS V14.01,2013-02-06 12:00:00,
2013-02-06 07:03:00,26.6,22.7,30.07,NNW,338,0.0,0.0,85,0.00,,,43.52,VWS V14.01,2013-02-06 12:03:00,
2013-02-06 07:04:00,26.6,22.7,30.07,NNW,338,0.0,0.0,85,0.00,,,43.52,VWS V14.01,2013-02-06 12:04:00,
2013-02-06 07:05:00,26.6,22.7,30.07,NNW,338,0.0,0.0,85,0.00,,,43.52,VWS V14.01,2013-02-06 12:05:00,
2013-02-06 07:08:00,26.6,23.0,30.07,WNW,292,0.0,0.0,86,0.00,,,43.52,VWS V14.01,2013-02-06 12:08:00,
2013-02-06 07:10:00,26.6,23.0,30.07,WNW,292,0.0,0.0,86,0.00,,,43.52,VWS V14.01,2013-02-06 12:10:00,
2013-02-06 07:11:00,26.4,22.8,30.07,WNW,292,0.0,0.0,86,0.00,,,43.52,VWS V14.01,2013-02-06 12:11:00,
2013-02-06 07:15:00,26.4,22.8,30.07,WNW,292,0.0,0.0,86,0.00,,,43.52,VWS V14.01,2013-02-06 12:15:00,
2013-02-06 07:16:00,26.4,22.8,30.07,WNW,292,0.0,0.0,86,0.00,,,43.52,VWS V14.01,2013-02-06 12:16:00,
2013-02-06 07:21:00,26.4,22.8,30.08,WNW,292,0.0,0.0,86,0.00,,,43.52,VWS V14.01,2013-02-06 12:21:00,
2013-02-06 07:22:00,26.4,22.8,30.08,WNW,292,0.0,0.0,86,0.00,,,43.52,VWS V14.01,2013-02-06 12:22:00,
2013-02-06 07:26:00,26.4,22.8,30.08,WNW,292,0.0,0.0,86,0.00,,,43.52,VWS V14.01,2013-02-06 12:26:00,
2013-02-06 07:27:00,26.4,22.8,30.08,WNW,292,0.0,0.0,86,0.00,,,43.52,VWS V14.01,2013-02-06 12:27:00,
2013-02-06 07:31:00,26.4,22.8,30.09,WNW,292,0.0,0.0,86,0.00,,,43.52,VWS V14.01,2013-02-06 12:31:00,
2013-02-06 07:32:00,26.4,22.8,30.09,WNW,292,0.0,0.0,86,0.00,,,43.52,VWS V14.01,2013-02-06 12:32:00,
2013-02-06 07:33:00,26.4,22.8,30.08,WNW,292,0.0,0.0,86,0.00,,,43.52,VWS V14.01,2013-02-06 12:33:00,
2013-02-06 07:36:00,26.4,22.8,30.09,WNW,292,0.0,0.0,86,0.00,,,43.52,VWS V14.01,2013-02-06 12:36:00,
2013-02-06 07:37:00,26.4,22.8,30.09,WNW,292,0.0,0.0,86,0.00,,,43.52,VWS V14.01,2013-02-06 12:37:00,
2013-02-06 07:38:00,26.4,22.8,30.09,WNW,292,0.0,0.0,86,0.00,,,43.52,VWS V14.01,2013-02-06 12:38:00,
2013-02-06 07:42:00,26.6,23.0,30.09,WNW,292,0.0,0.0,86,0.00,,,43.52,VWS V14.01,2013-02-06 12:42:00,
2013-02-06 07:43:00,26.7,23.1,30.09,WNW,292,0.0,0.0,86,0.00,,,43.52,VWS V14.01,2013-02-06 12:43:00,
2013-02-06 07:44:00,26.7,23.1,30.10,WNW,292,0.0,0.0,86,0.00,,,43.52,VWS V14.01,2013-02-06 12:44:00,
2013-02-06 07:45:00,26.7,23.1,30.10,WNW,292,0.0,0.0,86,0.00,,,43.52,VWS V14.01,2013-02-06 12:45:00,
2013-02-06 07:48:00,26.9,23.3,30.10,WNW,292,0.0,0.0,86,0.00,,,43.52,VWS V14.01,2013-02-06 12:48:00,
2013-02-06 07:49:00,27.1,23.5,30.10,WNW,292,0.0,0.0,86,0.00,,,43.52,VWS V14.01,2013-02-06 12:49:00,
2013-02-06 07:51:00,27.1,23.5,30.10,WNW,292,0.0,0.0,86,0.00,,,43.52,VWS V14.01,2013-02-06 12:51:00,
2013-02-06 07:53:00,27.3,23.7,30.11,WNW,292,0.0,0.0,86,0.00,,,43.52,VWS V14.01,2013-02-06 12:53:00,
2013-02-06 07:54:00,27.3,24.0,30.11,WNW,292,0.0,0.0,87,0.00,,,43.52,VWS V14.01,2013-02-06 12:54:00,
2013-02-06 07:56:00,27.5,24.1,30.11,WNW,292,0.0,0.0,87,0.00,,,43.52,VWS V14.01,2013-02-06 12:56:00,
2013-02-06 07:58:00,27.6,24.2,30.11,WNW,292,0.0,0.0,87,0.00,,,43.52,VWS V14.01,2013-02-06 12:58:00,
2013-02-06 08:00:00,28.0,24.6,30.11,WNW,292,0.0,0.0,87,0.00,,,43.52,VWS V14.01,2013-02-06 13:00:00,
2013-02-06 08:01:00,28.0,24.6,30.11,WNW,292,0.0,0.0,87,0.00,,,43.52,VWS V14.01,2013-02-06 13:01:00,
2013-02-06 08:03:00,28.2,24.8,30.11,WNW,292,0.0,0.0,87,0.00,,,43.52,VWS V14.01,2013-02-06 13:03:00,
2013-02-06 08:05:00,28.2,24.8,30.11,WNW,292,0.0,0.0,87,0.00,,,43.52,VWS V14.01,2013-02-06 13:05:00,
2013-02-06 08:06:00,28.2,24.8,30.11,WNW,292,0.0,0.0,87,0.00,,,43.52,VWS V14.01,2013-02-06 13:06:00,
2013-02-06 08:08:00,28.5,25.1,30.12,NW,315,0.0,0.0,87,0.00,,,43.52,VWS V14.01,2013-02-06 13:08:00,
2013-02-06 08:11:00,28.9,25.5,30.12,NW,315,0.0,0.0,87,0.00,,,43.52,VWS V14.01,2013-02-06 13:11:00,
2013-02-06 08:12:00,29.1,25.7,30.12,NW,315,0.0,0.0,87,0.00,,,43.52,VWS V14.01,2013-02-06 13:12:00,
2013-02-06 08:14:00,29.1,25.7,30.12,NW,315,0.0,0.0,87,0.00,,,43.52,VWS V14.01,2013-02-06 13:14:00,
2013-02-06 08:16:00,29.4,26.0,30.12,NW,315,0.0,0.0,87,0.00,,,43.52,VWS V14.01,2013-02-06 13:16:00,
2013-02-06 08:18:00,29.6,26.2,30.13,NW,315,0.0,0.0,87,0.00,,,43.52,VWS V14.01,2013-02-06 13:18:00,
2013-02-06 08:19:00,29.8,26.4,30.12,NW,315,0.0,0.0,87,0.00,,,43.52,VWS V14.01,2013-02-06 13:19:00,
2013-02-06 08:21:00,30.0,26.6,30.13,NW,315,0.0,0.0,87,0.00,,,43.52,VWS V14.01,2013-02-06 13:21:00,
2013-02-06 08:23:00,30.0,26.6,30.13,NW,315,0.0,0.0,87,0.00,,,43.52,VWS V14.01,2013-02-06 13:23:00,
2013-02-06 08:24:00,30.3,26.9,30.13,NW,315,0.0,0.0,87,0.00,,,43.52,VWS V14.01,2013-02-06 13:24:00,
2013-02-06 08:26:00,30.5,27.1,30.13,NW,315,0.0,0.0,87,0.00,,,43.52,VWS V14.01,2013-02-06 13:26:00,
2013-02-06 08:28:00,30.7,27.3,30.13,NW,315,0.0,0.0,87,0.00,,,43.52,VWS V14.01,2013-02-06 13:28:00,
2013-02-06 08:30:00,30.9,27.5,30.13,NW,315,0.0,0.0,87,0.00,,,43.52,VWS V14.01,2013-02-06 13:30:00,
2013-02-06 08:32:00,31.2,27.8,30.14,NW,315,0.0,0.0,87,0.00,,,43.52,VWS V14.01,2013-02-06 13:32:00,
2013-02-06 08:34:00,31.6,28.2,30.14,NW,315,0.0,0.0,87,0.00,,,43.52,VWS V14.01,2013-02-06 13:34:00,
2013-02-06 08:35:00,31.6,28.2,30.14,NW,315,0.0,0.0,87,0.00,,,43.52,VWS V14.01,2013-02-06 13:35:00,
2013-02-06 08:37:00,31.8,28.4,30.14,NW,315,0.0,0.0,87,0.00,,,43.52,VWS V14.01,2013-02-06 13:37:00,
2013-02-06 08:40:00,32.1,28.7,30.14,NW,315,0.0,0.0,87,0.00,,,43.52,VWS V14.01,2013-02-06 13:40:00,
2013-02-06 08:41:00,32.1,28.4,30.14,NW,315,0.0,0.0,86,0.00,,,43.52,VWS V14.01,2013-02-06 13:41:00,
2013-02-06 08:43:00,32.3,28.9,30.14,NW,315,0.0,0.0,87,0.00,,,43.52,VWS V14.01,2013-02-06 13:43:00,
2013-02-06 08:45:00,32.7,29.3,30.15,NW,315,0.0,0.0,87,0.00,,,43.52,VWS V14.01,2013-02-06 13:45:00,
2013-02-06 08:47:00,32.9,29.5,30.14,NW,315,0.0,0.0,87,0.00,,,43.52,VWS V14.01,2013-02-06 13:47:00,
2013-02-06 08:48:00,33.0,29.6,30.14,NW,315,0.0,0.0,87,0.00,,,43.52,VWS V14.01,2013-02-06 13:48:00,
2013-02-06 08:50:00,33.6,29.9,30.14,NW,315,0.0,0.0,86,0.00,,,43.52,VWS V14.01,2013-02-06 13:50:00,
2013-02-06 08:52:00,33.6,29.9,30.14,NW,315,0.0,0.0,86,0.00,,,43.52,VWS V14.01,2013-02-06 13:52:00,
2013-02-06 08:54:00,34.3,30.6,30.15,NW,315,0.0,0.0,86,0.00,,,43.52,VWS V14.01,2013-02-06 13:54:00,
2013-02-06 08:56:00,34.3,30.6,30.15,NW,315,0.0,0.0,86,0.00,,,43.52,VWS V14.01,2013-02-06 13:56:00,
2013-02-06 08:57:00,34.5,30.8,30.15,NW,315,0.0,0.0,86,0.00,,,43.52,VWS V14.01,2013-02-06 13:57:00,
2013-02-06 08:58:00,34.8,31.0,30.14,NW,315,0.0,0.0,86,0.00,,,43.52,VWS V14.01,2013-02-06 13:58:00,
2013-02-06 09:00:00,35.0,31.0,30.15,NW,315,0.0,0.0,85,0.00,,,43.52,VWS V14.01,2013-02-06 14:00:00,
2013-02-06 09:01:00,34.8,30.8,30.15,NW,315,0.0,0.0,85,0.00,,,43.52,VWS V14.01,2013-02-06 14:01:00,
2013-02-06 09:03:00,35.4,31.6,30.15,NW,315,0.0,0.0,86,0.00,,,43.52,VWS V14.01,2013-02-06 14:03:00,
2013-02-06 09:04:00,35.4,31.4,30.15,NW,315,0.0,0.0,85,0.00,,,43.52,VWS V14.01,2013-02-06 14:04:00,
2013-02-06 09:07:00,36.1,32.0,30.15,NW,315,0.0,0.0,85,0.00,,,43.52,VWS V14.01,2013-02-06 14:07:00,
2013-02-06 09:08:00,36.1,32.0,30.15,NW,315,0.0,0.0,85,0.00,,,43.52,VWS V14.01,2013-02-06 14:08:00,
2013-02-06 09:09:00,36.3,31.9,30.15,NW,315,0.0,0.0,84,0.00,,,43.52,VWS V14.01,2013-02-06 14:09:00,
2013-02-06 09:13:00,37.0,32.3,30.15,NW,315,0.0,0.0,83,0.00,,,43.52,VWS V14.01,2013-02-06 14:13:00,
2013-02-06 09:14:00,37.2,32.5,30.15,NW,315,0.0,0.0,83,0.00,,,43.52,VWS V14.01,2013-02-06 14:14:00,
2013-02-06 09:15:00,37.2,32.5,30.15,NW,315,0.0,0.0,83,0.00,,,43.52,VWS V14.01,2013-02-06 14:15:00,
2013-02-06 09:18:00,37.5,32.5,30.15,West,270,0.0,0.0,82,0.00,,,43.52,VWS V14.01,2013-02-06 14:18:00,
2013-02-06 09:19:00,37.7,32.7,30.15,NW,315,0.0,0.0,82,0.00,,,43.52,VWS V14.01,2013-02-06 14:19:00,
2013-02-06 09:20:00,37.9,32.9,30.15,North,0,0.0,0.0,82,0.00,,,43.52,VWS V14.01,2013-02-06 14:20:00,
2013-02-06 09:23:00,38.3,32.7,30.15,ENE,68,0.0,0.0,80,0.00,,,43.52,VWS V14.01,2013-02-06 14:23:00,
2013-02-06 09:25:00,38.3,32.7,30.15,ENE,68,0.0,0.0,80,0.00,,,43.52,VWS V14.01,2013-02-06 14:25:00,
2013-02-06 09:29:00,39.0,33.0,30.15,ENE,68,0.0,0.0,79,0.00,,,43.52,VWS V14.01,2013-02-06 14:29:00,
2013-02-06 09:30:00,39.3,33.3,30.15,ENE,68,0.0,0.0,79,0.00,,,43.52,VWS V14.01,2013-02-06 14:30:00,
2013-02-06 09:31:00,39.3,33.3,30.15,ENE,68,0.0,0.0,79,0.00,,,43.52,VWS V14.01,2013-02-06 14:31:00,
2013-02-06 09:34:00,39.9,33.6,30.15,ENE,68,0.0,0.0,78,0.00,,,43.52,VWS V14.01,2013-02-06 14:34:00,
2013-02-06 09:35:00,39.9,33.6,30.15,ENE,68,0.0,0.0,78,0.00,,,43.52,VWS V14.01,2013-02-06 14:35:00,
2013-02-06 09:36:00,39.9,33.6,30.15,ENE,68,0.0,0.0,78,0.00,,,43.52,VWS V14.01,2013-02-06 14:36:00,
2013-02-06 09:40:00,40.6,34.0,30.16,ESE,112,0.0,0.0,77,0.00,,,43.52,VWS V14.01,2013-02-06 14:40:00,
2013-02-06 09:41:00,40.8,34.2,30.16,ESE,112,0.0,0.0,77,0.00,,,43.52,VWS V14.01,2013-02-06 14:41:00,
2013-02-06 09:45:00,41.0,33.7,30.15,ENE,68,0.0,0.0,75,0.00,,,43.52,VWS V14.01,2013-02-06 14:45:00,
2013-02-06 09:46:00,41.3,34.0,30.15,East,90,2.6,2.6,75,0.00,,,43.52,VWS V14.01,2013-02-06 14:46:00,
2013-02-06 09:51:00,41.7,33.7,30.16,ENE,68,0.0,2.6,73,0.00,,,43.52,VWS V14.01,2013-02-06 14:51:00,
2013-02-06 09:52:00,41.7,33.7,30.16,ENE,68,0.0,0.0,73,0.00,,,43.52,VWS V14.01,2013-02-06 14:52:00,
2013-02-06 09:54:00,42.0,34.0,30.16,ESE,112,0.0,0.0,73,0.00,,,43.52,VWS V14.01,2013-02-06 14:54:00,
2013-02-06 09:56:00,42.4,34.7,30.16,East,90,0.0,0.0,74,0.00,,,43.52,VWS V14.01,2013-02-06 14:56:00,
2013-02-06 09:58:00,42.4,34.4,30.16,ENE,68,0.0,0.0,73,0.00,,,43.52,VWS V14.01,2013-02-06 14:58:00,
2013-02-06 09:59:00,42.6,34.6,30.17,ENE,68,0.0,0.0,73,0.00,,,43.52,VWS V14.01,2013-02-06 14:59:00,
2013-02-06 10:01:00,42.9,34.5,30.16,NE,45,0.0,0.0,72,0.00,,,43.52,VWS V14.01,2013-02-06 15:01:00,
2013-02-06 10:03:00,43.3,34.9,30.17,ESE,112,0.0,0.0,72,0.00,,,43.52,VWS V14.01,2013-02-06 15:03:00,
2013-02-06 10:04:00,43.3,34.9,30.17,ESE,112,0.0,0.0,72,0.00,,,43.52,VWS V14.01,2013-02-06 15:04:00,
2013-02-06 10:05:00,43.3,34.9,30.17,ESE,112,0.0,0.0,72,0.00,,,43.52,VWS V14.01,2013-02-06 15:05:00,
2013-02-06 10:07:00,43.7,34.9,30.17,NE,45,6.2,6.2,71,0.00,,,43.52,VWS V14.01,2013-02-06 15:07:00,
2013-02-06 10:08:00,43.8,35.0,30.17,NE,45,6.0,6.2,71,0.00,,,43.52,VWS V14.01,2013-02-06 15:08:00,
2013-02-06 10:10:00,44.0,34.9,30.17,ENE,68,0.0,6.2,70,0.00,,,43.52,VWS V14.01,2013-02-06 15:10:00,
2013-02-06 10:11:00,44.4,35.2,30.17,NE,45,0.0,0.0,70,0.00,,,43.52,VWS V14.01,2013-02-06 15:11:00,
2013-02-06 10:12:00,44.2,35.0,30.17,NNE,22,0.0,0.0,70,0.00,,,43.52,VWS V14.01,2013-02-06 15:12:00,
2013-02-06 10:14:00,44.4,35.2,30.17,ENE,68,0.0,0.0,70,0.00,,,43.52,VWS V14.01,2013-02-06 15:14:00,
2013-02-06 10:16:00,44.7,35.2,30.17,ENE,68,0.0,0.0,69,0.00,,,43.52,VWS V14.01,2013-02-06 15:16:00,
2013-02-06 10:17:00,44.9,35.4,30.17,ENE,68,0.0,0.0,69,0.00,,,43.52,VWS V14.01,2013-02-06 15:17:00,
2013-02-06 10:19:00,44.9,35.0,30.17,ESE,112,2.4,2.4,68,0.00,,,43.52,VWS V14.01,2013-02-06 15:19:00,
2013-02-06 10:22:00,45.3,35.4,30.17,NE,45,0.0,0.0,68,0.00,,,43.52,VWS V14.01,2013-02-06 15:22:00,
2013-02-06 10:23:00,45.3,35.4,30.17,NE,45,0.0,0.0,68,0.00,,,43.52,VWS V14.01,2013-02-06 15:23:00,
2013-02-06 10:25:00,45.5,35.6,30.17,ESE,112,0.0,0.0,68,0.00,,,43.52,VWS V14.01,2013-02-06 15:25:00,
2013-02-06 10:28:00,46.0,35.7,30.17,East,90,0.0,0.0,67,0.00,,,43.52,VWS V14.01,2013-02-06 15:28:00,
2013-02-06 10:30:00,46.2,35.9,30.18,NE,45,0.0,0.0,67,0.00,,,43.52,VWS V14.01,2013-02-06 15:30:00,
2013-02-06 10:33:00,46.5,36.2,30.18,NNW,338,0.0,0.0,67,0.00,,,43.52,VWS V14.01,2013-02-06 15:33:00,
2013-02-06 10:34:00,46.5,36.2,30.18,NNW,338,0.0,0.0,67,0.00,,,43.52,VWS V14.01,2013-02-06 15:34:00,
2013-02-06 10:36:00,46.7,36.3,30.18,NNW,338,0.0,0.0,67,0.00,,,43.52,VWS V14.01,2013-02-06 15:36:00,
2013-02-06 10:38:00,46.9,35.8,30.18,NNE,22,0.0,5.1,65,0.00,,,43.52,VWS V14.01,2013-02-06 15:38:00,
2013-02-06 10:39:00,46.9,35.8,30.18,NNE,22,0.0,5.1,65,0.00,,,43.52,VWS V14.01,2013-02-06 15:39:00,
2013-02-06 10:42:00,47.1,36.0,30.18,NNW,338,0.0,0.0,65,0.00,,,43.52,VWS V14.01,2013-02-06 15:42:00,
2013-02-06 10:44:00,47.1,36.3,30.18,NNW,338,0.0,0.0,66,0.00,,,43.52,VWS V14.01,2013-02-06 15:44:00,
2013-02-06 10:47:00,47.6,36.0,30.18,ENE,68,0.0,0.0,64,0.00,,,43.52,VWS V14.01,2013-02-06 15:47:00,
2013-02-06 10:49:00,47.8,36.2,30.18,NE,45,0.0,0.0,64,0.00,,,43.52,VWS V14.01,2013-02-06 15:49:00,
2013-02-06 10:50:00,47.8,36.2,30.18,NE,45,0.0,0.0,64,0.00,,,43.52,VWS V14.01,2013-02-06 15:50:00,
2013-02-06 10:52:00,48.0,36.4,30.18,NE,45,0.0,0.0,64,0.00,,,43.52,VWS V14.01,2013-02-06 15:52:00,
2013-02-06 10:55:00,48.2,36.2,30.18,NE,45,4.2,6.9,63,0.00,,,43.52,VWS V14.01,2013-02-06 15:55:00,
2013-02-06 10:56:00,48.2,36.2,30.18,ENE,68,0.0,6.9,63,0.00,,,43.52,VWS V14.01,2013-02-06 15:56:00,
2013-02-06 10:58:00,48.2,36.2,30.18,ENE,68,2.9,6.9,63,0.00,,,43.52,VWS V14.01,2013-02-06 15:58:00,
2013-02-06 11:01:00,48.3,36.3,30.18,NW,315,0.0,6.9,63,0.00,,,43.52,VWS V14.01,2013-02-06 16:01:00,
2013-02-06 11:02:00,48.3,36.3,30.18,WNW,292,0.0,0.0,63,0.00,,,43.52,VWS V14.01,2013-02-06 16:02:00,
2013-02-06 11:03:00,48.5,36.5,30.18,WNW,292,0.0,0.0,63,0.00,,,43.52,VWS V14.01,2013-02-06 16:03:00,
2013-02-06 11:06:00,48.9,36.9,30.17,NW,315,0.0,0.0,63,0.00,,,43.52,VWS V14.01,2013-02-06 16:06:00,
2013-02-06 11:07:00,48.9,36.9,30.17,NW,315,0.0,0.0,63,0.00,,,43.52,VWS V14.01,2013-02-06 16:07:00,
2013-02-06 11:08:00,49.1,37.1,30.18,WNW,292,0.0,0.0,63,0.00,,,43.52,VWS V14.01,2013-02-06 16:08:00,
2013-02-06 11:11:00,49.2,36.8,30.18,SW,225,0.0,0.0,62,0.00,,,43.52,VWS V14.01,2013-02-06 16:11:00,
2013-02-06 11:12:00,49.2,36.8,30.18,SW,225,0.0,0.0,62,0.00,,,43.52,VWS V14.01,2013-02-06 16:12:00,
2013-02-06 11:13:00,49.2,36.8,30.18,SW,225,0.0,0.0,62,0.00,,,43.52,VWS V14.01,2013-02-06 16:13:00,
2013-02-06 11:14:00,49.6,37.1,30.18,SE,135,0.0,0.0,62,0.00,,,43.52,VWS V14.01,2013-02-06 16:14:00,
2013-02-06 11:17:00,49.8,37.3,30.18,NE,45,0.0,0.0,62,0.00,,,43.52,VWS V14.01,2013-02-06 16:17:00,
2013-02-06 11:18:00,49.8,37.3,30.18,NE,45,0.0,0.0,62,0.00,,,43.52,VWS V14.01,2013-02-06 16:18:00,
2013-02-06 11:19:00,49.8,36.9,30.18,NNE,22,0.0,0.0,61,0.00,,,43.52,VWS V14.01,2013-02-06 16:19:00,
2013-02-06 11:22:00,49.8,36.5,30.18,ENE,68,0.0,0.0,60,0.00,,,43.52,VWS V14.01,2013-02-06 16:22:00,
2013-02-06 11:23:00,49.8,36.5,30.18,East,90,0.0,0.0,60,0.00,,,43.52,VWS V14.01,2013-02-06 16:23:00,
2013-02-06 11:25:00,49.8,36.5,30.18,ESE,112,0.0,0.0,60,0.00,,,43.52,VWS V14.01,2013-02-06 16:25:00,
2013-02-06 11:27:00,49.8,36.9,30.18,NE,45,0.0,0.0,61,0.00,,,43.52,VWS V14.01,2013-02-06 16:27:00,
2013-02-06 11:29:00,50.1,37.2,30.18,NE,45,0.0,0.0,61,0.00,,,43.52,VWS V14.01,2013-02-06 16:29:00,
2013-02-06 11:30:00,50.3,37.4,30.18,NE,45,0.0,0.0,61,0.00,,,43.52,VWS V14.01,2013-02-06 16:30:00,
2013-02-06 11:32:00,50.3,37.4,30.18,NE,45,0.0,0.0,61,0.00,,,43.52,VWS V14.01,2013-02-06 16:32:00,
2013-02-06 11:35:00,50.3,37.0,30.18,ENE,68,1.1,1.1,60,0.00,,,43.52,VWS V14.01,2013-02-06 16:35:00,
2013-02-06 11:37:00,50.7,36.9,30.18,ENE,68,0.0,1.1,59,0.00,,,43.52,VWS V14.01,2013-02-06 16:37:00,
2013-02-06 11:40:00,50.7,36.9,30.17,ENE,68,5.5,5.5,59,0.00,,,43.52,VWS V14.01,2013-02-06 16:40:00,
2013-02-06 11:43:00,50.7,36.5,30.17,ENE,68,0.0,0.0,58,0.00,,,43.52,VWS V14.01,2013-02-06 16:43:00,
2013-02-06 11:45:00,51.0,36.8,30.18,ENE,68,0.0,0.0,58,0.00,,,43.52,VWS V14.01,2013-02-06 16:45:00,
2013-02-06 11:46:00,51.0,36.8,30.18,ENE,68,0.0,0.0,58,0.00,,,43.52,VWS V14.01,2013-02-06 16:46:00,
2013-02-06 11:48:00,51.2,37.0,30.18,ENE,68,0.0,0.0,58,0.00,,,43.52,VWS V14.01,2013-02-06 16:48:00,
2013-02-06 11:51:00,51.4,37.1,30.18,ESE,112,0.0,0.0,58,0.00,,,43.52,VWS V14.01,2013-02-06 16:51:00,
2013-02-06 11:54:00,51.4,37.1,30.17,NW,315,0.0,0.0,58,0.00,,,43.52,VWS V14.01,2013-02-06 16:54:00,
2013-02-06 11:56:00,51.8,37.5,30.17,ENE,68,0.0,0.0,58,0.00,,,43.52,VWS V14.01,2013-02-06 16:56:00,
2013-02-06 11:59:00,51.8,37.1,30.17,ENE,68,0.0,0.0,57,0.00,,,43.52,VWS V14.01,2013-02-06 16:59:00,
2013-02-06 12:01:00,52.1,37.3,30.17,ESE,112,0.0,0.0,57,0.00,,,43.52,VWS V14.01,2013-02-06 17:01:00,
2013-02-06 12:02:00,52.1,37.3,30.17,ESE,112,0.0,0.0,57,0.00,,,43.52,VWS V14.01,2013-02-06 17:02:00,
2013-02-06 12:05:00,52.3,37.1,30.17,ESE,112,0.0,0.0,56,0.00,,,43.52,VWS V14.01,2013-02-06 17:05:00,
2013-02-06 12:07:00,52.1,36.9,30.17,SSE,158,0.0,0.0,56,0.00,,,43.52,VWS V14.01,2013-02-06 17:07:00,
2013-02-06 12:10:00,52.7,37.9,30.17,North,0,0.0,0.0,57,0.00,,,43.52,VWS V14.01,2013-02-06 17:10:00,
2013-02-06 12:12:00,52.8,37.5,30.17,WNW,292,6.4,6.4,56,0.00,,,43.52,VWS V14.01,2013-02-06 17:12:00,
2013-02-06 12:15:00,53.0,37.3,30.17,ENE,68,0.0,6.4,55,0.00,,,43.52,VWS V14.01,2013-02-06 17:15:00,
2013-02-06 12:16:00,52.8,37.1,30.17,NE,45,0.0,6.4,55,0.00,,,43.52,VWS V14.01,2013-02-06 17:16:00,
2013-02-06 12:17:00,52.8,37.1,30.17,ENE,68,0.0,6.4,55,0.00,,,43.52,VWS V14.01,2013-02-06 17:17:00,
2013-02-06 12:18:00,52.8,37.1,30.17,NW,315,6.9,6.9,55,0.00,,,43.52,VWS V14.01,2013-02-06 17:18:00,
2013-02-06 12:21:00,52.8,37.1,30.17,North,0,0.0,10.5,55,0.00,,,43.52,VWS V14.01,2013-02-06 17:21:00,
2013-02-06 12:22:00,52.8,37.1,30.17,North,0,0.0,0.0,55,0.00,,,43.52,VWS V14.01,2013-02-06 17:22:00,
2013-02-06 12:24:00,53.0,36.8,30.17,NNE,22,0.0,0.0,54,0.00,,,43.52,VWS V14.01,2013-02-06 17:24:00,
2013-02-06 12:25:00,53.0,36.8,30.17,NNE,22,0.0,0.0,54,0.00,,,43.52,VWS V14.01,2013-02-06 17:25:00,
2013-02-06 12:27:00,53.2,37.0,30.17,NW,315,0.0,6.0,54,0.00,,,43.52,VWS V14.01,2013-02-06 17:27:00,
2013-02-06 12:28:00,53.2,37.0,30.17,North,0,0.0,6.0,54,0.00,,,43.52,VWS V14.01,2013-02-06 17:28:00,
2013-02-06 12:30:00,53.2,37.0,30.17,West,270,0.0,6.0,54,0.00,,,43.52,VWS V14.01,2013-02-06 17:30:00,
2013-02-06 12:31:00,53.2,37.0,30.17,SE,135,0.0,0.0,54,0.00,,,43.52,VWS V14.01,2013-02-06 17:31:00,
2013-02-06 12:32:00,53.2,37.0,30.17,SE,135,0.0,0.0,54,0.00,,,43.52,VWS V14.01,2013-02-06 17:32:00,
2013-02-06 12:33:00,53.2,37.0,30.17,ENE,68,0.0,0.0,54,0.00,,,43.52,VWS V14.01,2013-02-06 17:33:00,
2013-02-06 12:35:00,53.4,37.2,30.17,ENE,68,0.0,0.0,54,0.00,,,43.52,VWS V14.01,2013-02-06 17:35:00,
2013-02-06 12:37:00,53.4,36.7,30.17,NNW,338,4.2,4.2,53,0.00,,,43.52,VWS V14.01,2013-02-06 17:37:00,
2013-02-06 12:38:00,53.4,36.7,30.17,North,0,0.0,4.2,53,0.00,,,43.52,VWS V14.01,2013-02-06 17:38:00,
2013-02-06 12:39:00,53.4,37.2,30.17,NW,315,7.6,7.6,54,0.00,,,43.52,VWS V14.01,2013-02-06 17:39:00,
2013-02-06 12:41:00,53.6,36.9,30.17,SE,135,0.0,0.0,53,0.00,,,43.52,VWS V14.01,2013-02-06 17:41:00,
2013-02-06 12:42:00,53.6,36.9,30.17,SE,135,0.0,0.0,53,0.00,,,43.52,VWS V14.01,2013-02-06 17:42:00,
2013-02-06 12:44:00,53.7,37.0,30.16,West,270,3.1,3.1,53,0.00,,,43.52,VWS V14.01,2013-02-06 17:44:00,
2013-02-06 12:46:00,53.7,37.0,30.16,NW,315,2.6,8.0,53,0.00,,,43.52,VWS V14.01,2013-02-06 17:46:00,
2013-02-06 12:49:00,53.9,37.2,30.16,WNW,292,0.0,8.0,53,0.00,,,43.52,VWS V14.01,2013-02-06 17:49:00,
2013-02-06 12:50:00,53.9,37.2,30.17,NW,315,0.0,8.0,53,0.00,,,43.52,VWS V14.01,2013-02-06 17:50:00,
2013-02-06 12:51:00,54.1,37.4,30.17,NNW,338,7.6,7.6,53,0.00,,,43.52,VWS V14.01,2013-02-06 17:51:00,
2013-02-06 12:54:00,54.3,37.5,30.17,WNW,292,0.0,7.6,53,0.00,,,43.52,VWS V14.01,2013-02-06 17:54:00,
2013-02-06 12:55:00,54.3,37.1,30.16,West,270,0.0,7.6,52,0.00,,,43.52,VWS V14.01,2013-02-06 17:55:00,
2013-02-06 12:58:00,54.6,37.8,30.17,West,270,0.0,7.6,53,0.00,,,43.52,VWS V14.01,2013-02-06 17:58:00,
2013-02-06 13:01:00,54.8,37.5,30.16,NW,315,0.0,7.6,52,0.00,,,43.52,VWS V14.01,2013-02-06 18:01:00,
2013-02-06 13:02:00,55.2,37.9,30.16,NNW,338,0.0,0.0,52,0.00,,,43.52,VWS V14.01,2013-02-06 18:02:00,
2013-02-06 13:04:00,55.2,37.9,30.16,WNW,292,0.0,0.0,52,0.00,,,43.52,VWS V14.01,2013-02-06 18:04:00,
2013-02-06 13:06:00,55.2,37.4,30.16,NNW,338,0.0,3.5,51,0.00,,,43.52,VWS V14.01,2013-02-06 18:06:00,
2013-02-06 13:07:00,55.2,37.4,30.16,NNW,338,0.0,3.5,51,0.00,,,43.52,VWS V14.01,2013-02-06 18:07:00,
2013-02-06 13:08:00,55.2,37.4,30.16,NW,315,2.9,8.2,51,0.00,,,43.52,VWS V14.01,2013-02-06 18:08:00,
2013-02-06 13:11:00,55.0,36.7,30.16,North,0,0.0,8.2,50,0.00,,,43.52,VWS V14.01,2013-02-06 18:11:00,
2013-02-06 13:12:00,55.0,36.7,30.16,NNW,338,0.0,0.0,50,0.00,,,43.52,VWS V14.01,2013-02-06 18:12:00,
2013-02-06 13:13:00,55.0,36.7,30.16,West,270,0.0,0.0,50,0.00,,,43.52,VWS V14.01,2013-02-06 18:13:00,
2013-02-06 13:16:00,55.2,37.4,30.16,SW,225,0.0,0.0,51,0.00,,,43.52,VWS V14.01,2013-02-06 18:16:00,
2013-02-06 13:17:00,55.2,37.4,30.16,WNW,292,0.0,0.0,51,0.00,,,43.52,VWS V14.01,2013-02-06 18:17:00,
2013-02-06 13:18:00,55.5,37.7,30.16,WNW,292,0.0,0.0,51,0.00,,,43.52,VWS V14.01,2013-02-06 18:18:00,
2013-02-06 13:19:00,55.5,37.7,30.16,WNW,292,0.0,0.0,51,0.00,,,43.52,VWS V14.01,2013-02-06 18:19:00,
2013-02-06 13:22:00,55.7,37.4,30.16,NW,315,0.0,0.0,50,0.00,,,43.52,VWS V14.01,2013-02-06 18:22:00,
2013-02-06 13:23:00,55.7,37.4,30.16,NW,315,0.0,0.0,50,0.00,,,43.52,VWS V14.01,2013-02-06 18:23:00,
2013-02-06 13:25:00,55.7,37.4,30.16,NW,315,6.9,6.9,50,0.00,,,43.52,VWS V14.01,2013-02-06 18:25:00,
2013-02-06 13:27:00,55.5,37.2,30.16,West,270,0.0,6.9,50,0.00,,,43.52,VWS V14.01,2013-02-06 18:27:00,
2013-02-06 13:28:00,55.5,37.7,30.16,West,270,0.0,6.9,51,0.00,,,43.52,VWS V14.01,2013-02-06 18:28:00,
2013-02-06 13:29:00,55.5,37.7,30.16,West,270,0.0,6.9,51,0.00,,,43.52,VWS V14.01,2013-02-06 18:29:00,
2013-02-06 13:30:00,55.9,38.0,30.16,WNW,292,0.0,6.9,51,0.00,,,43.52,VWS V14.01,2013-02-06 18:30:00,
2013-02-06 13:32:00,55.9,38.0,30.16,NW,315,0.0,0.0,51,0.00,,,43.52,VWS V14.01,2013-02-06 18:32:00,
2013-02-06 13:34:00,55.9,38.0,30.16,WNW,292,0.0,0.0,51,0.00,,,43.52,VWS V14.01,2013-02-06 18:34:00,
2013-02-06 13:36:00,56.1,38.2,30.16,WNW,292,8.2,8.2,51,0.00,,,43.52,VWS V14.01,2013-02-06 18:36:00,
2013-02-06 13:38:00,56.1,37.7,30.16,NNW,338,0.0,8.2,50,0.00,,,43.52,VWS V14.01,2013-02-06 18:38:00,
2013-02-06 13:39:00,56.1,37.7,30.16,NNW,338,0.0,8.2,50,0.00,,,43.52,VWS V14.01,2013-02-06 18:39:00,
2013-02-06 13:40:00,56.1,37.7,30.16,NE,45,0.0,8.2,50,0.00,,,43.52,VWS V14.01,2013-02-06 18:40:00,
2013-02-06 13:41:00,56.1,37.7,30.16,NE,45,0.0,8.2,50,0.00,,,43.52,VWS V14.01,2013-02-06 18:41:00,
2013-02-06 13:44:00,56.1,37.7,30.16,North,0,0.0,0.0,50,0.00,,,43.52,VWS V14.01,2013-02-06 18:44:00,
2013-02-06 13:45:00,56.1,37.2,30.16,NE,45,0.0,0.0,49,0.00,,,43.52,VWS V14.01,2013-02-06 18:45:00,
2013-02-06 13:46:00,56.1,37.2,30.16,NE,45,0.0,0.0,49,0.00,,,43.52,VWS V14.01,2013-02-06 18:46:00,
2013-02-06 13:49:00,55.9,37.0,30.16,North,0,0.0,0.0,49,0.00,,,43.52,VWS V14.01,2013-02-06 18:49:00,
2013-02-06 13:51:00,55.9,37.0,30.16,NW,315,0.0,0.0,49,0.00,,,43.52,VWS V14.01,2013-02-06 18:51:00,
2013-02-06 13:55:00,55.9,37.0,30.15,NW,315,0.0,4.6,49,0.00,,,43.52,VWS V14.01,2013-02-06 18:55:00,
2013-02-06 13:56:00,56.1,37.2,30.15,NNW,338,0.0,4.6,49,0.00,,,43.52,VWS V14.01,2013-02-06 18:56:00,
2013-02-06 13:57:00,56.1,37.2,30.15,NNW,338,0.0,4.6,49,0.00,,,43.52,VWS V14.01,2013-02-06 18:57:00,
2013-02-06 14:00:00,56.1,37.2,30.15,SSW,202,0.0,4.6,49,0.00,,,43.52,VWS V14.01,2013-02-06 19:00:00,
2013-02-06 14:02:00,56.3,37.4,30.15,WNW,292,5.5,5.5,49,0.00,,,43.52,VWS V14.01,2013-02-06 19:02:00,
2013-02-06 14:03:00,56.3,37.4,30.16,West,270,0.0,5.5,49,0.00,,,43.52,VWS V14.01,2013-02-06 19:03:00,
2013-02-06 14:05:00,56.3,37.4,30.15,West,270,0.0,5.5,49,0.00,,,43.52,VWS V14.01,2013-02-06 19:05:00,
2013-02-06 14:07:00,56.4,37.5,30.15,West,270,0.0,5.5,49,0.00,,,43.52,VWS V14.01,2013-02-06 19:07:00,
2013-02-06 14:08:00,56.4,37.0,30.15,West,270,0.0,5.5,48,0.00,,,43.52,VWS V14.01,2013-02-06 19:08:00,
2013-02-06 14:10:00,56.8,37.3,30.15,NE,45,0.0,5.5,48,0.00,,,43.52,VWS V14.01,2013-02-06 19:10:00,
2013-02-06 14:12:00,56.8,37.3,30.15,NE,45,0.0,0.0,48,0.00,,,43.52,VWS V14.01,2013-02-06 19:12:00,
2013-02-06 14:13:00,56.8,37.3,30.15,NE,45,0.0,0.0,48,0.00,,,43.52,VWS V14.01,2013-02-06 19:13:00,
2013-02-06 14:14:00,56.8,37.3,30.15,NE,45,0.0,0.0,48,0.00,,,43.52,VWS V14.01,2013-02-06 19:14:00,
2013-02-06 14:18:00,56.8,37.3,30.16,West,270,0.0,0.0,48,0.00,,,43.52,VWS V14.01,2013-02-06 19:18:00,
2013-02-06 14:19:00,56.8,37.3,30.16,West,270,0.0,0.0,48,0.00,,,43.52,VWS V14.01,2013-02-06 19:19:00,
2013-02-06 14:20:00,57.0,37.5,30.15,West,270,0.0,0.0,48,0.00,,,43.52,VWS V14.01,2013-02-06 19:20:00,
2013-02-06 14:23:00,57.0,37.0,30.15,WNW,292,0.0,0.0,47,0.00,,,43.52,VWS V14.01,2013-02-06 19:23:00,
2013-02-06 14:24:00,57.0,37.0,30.15,NNW,338,0.0,0.0,47,0.00,,,43.52,VWS V14.01,2013-02-06 19:24:00,
2013-02-06 14:25:00,57.0,37.0,30.15,NNW,338,0.0,0.0,47,0.00,,,43.52,VWS V14.01,2013-02-06 19:25:00,
2013-02-06 14:29:00,57.0,37.0,30.16,North,0,0.0,0.0,47,0.00,,,43.52,VWS V14.01,2013-02-06 19:29:00,
2013-02-06 14:30:00,57.0,37.0,30.15,North,0,0.0,0.0,47,0.00,,,43.52,VWS V14.01,2013-02-06 19:30:00,
2013-02-06 14:31:00,57.0,37.5,30.15,SSW,202,0.0,0.0,48,0.00,,,43.52,VWS V14.01,2013-02-06 19:31:00,
2013-02-06 14:34:00,57.3,37.3,30.16,SSW,202,0.0,0.0,47,0.00,,,43.52,VWS V14.01,2013-02-06 19:34:00,
2013-02-06 14:35:00,57.3,37.3,30.16,SSW,202,0.0,0.0,47,0.00,,,43.52,VWS V14.01,2013-02-06 19:35:00,
2013-02-06 14:36:00,57.3,37.3,30.15,WNW,292,0.0,0.0,47,0.00,,,43.52,VWS V14.01,2013-02-06 19:36:00,
2013-02-06 14:40:00,57.3,37.3,30.15,NW,315,4.4,4.4,47,0.00,,,43.52,VWS V14.01,2013-02-06 19:40:00,
2013-02-06 14:41:00,57.3,36.7,30.15,West,270,0.0,0.0,46,0.00,,,43.52,VWS V14.01,2013-02-06 19:41:00,
2013-02-06 14:42:00,57.3,36.7,30.16,WNW,292,0.0,0.0,46,0.00,,,43.52,VWS V14.01,2013-02-06 19:42:00,
2013-02-06 14:45:00,57.3,36.7,30.16,NW,315,0.0,7.1,46,0.00,,,43.52,VWS V14.01,2013-02-06 19:45:00,
2013-02-06 14:47:00,57.3,36.2,30.16,WNW,292,0.6,7.1,45,0.00,,,43.52,VWS V14.01,2013-02-06 19:47:00,
2013-02-06 14:49:00,57.0,35.9,30.16,NW,315,0.0,7.1,45,0.00,,,43.52,VWS V14.01,2013-02-06 19:49:00,
2013-02-06 14:51:00,56.8,35.7,30.15,West,270,0.0,0.0,45,0.00,,,43.52,VWS V14.01,2013-02-06 19:51:00,
2013-02-06 14:52:00,56.8,35.7,30.16,ESE,112,0.0,0.0,45,0.00,,,43.52,VWS V14.01,2013-02-06 19:52:00,
2013-02-06 14:53:00,56.8,35.7,30.16,ESE,112,0.0,0.0,45,0.00,,,43.52,VWS V14.01,2013-02-06 19:53:00,
2013-02-06 14:55:00,56.8,35.7,30.16,SE,135,0.0,0.0,45,0.00,,,43.52,VWS V14.01,2013-02-06 19:55:00,
2013-02-06 14:56:00,56.8,36.3,30.15,SSE,158,0.0,0.0,46,0.00,,,43.52,VWS V14.01,2013-02-06 19:56:00,
2013-02-06 14:58:00,56.8,36.3,30.15,WSW,248,0.0,0.0,46,0.00,,,43.52,VWS V14.01,2013-02-06 19:58:00,
2013-02-06 14:59:00,56.8,36.3,30.15,WSW,248,0.0,0.0,46,0.00,,,43.52,VWS V14.01,2013-02-06 19:59:00,
2013-02-06 15:00:00,57.0,35.9,30.16,NW,315,0.0,0.0,45,0.00,,,43.52,VWS V14.01,2013-02-06 20:00:00,
2013-02-06 15:01:00,57.0,35.9,30.15,WNW,292,0.0,0.0,45,0.00,,,43.52,VWS V14.01,2013-02-06 20:01:00,
2013-02-06 15:04:00,57.0,35.9,30.15,NE,45,0.0,0.0,45,0.00,,,43.52,VWS V14.01,2013-02-06 20:04:00,
2013-02-06 15:06:00,56.8,35.7,30.15,WSW,248,0.0,0.0,45,0.00,,,43.52,VWS V14.01,2013-02-06 20:06:00,
2013-02-06 15:07:00,56.8,35.7,30.15,West,270,0.0,0.0,45,0.00,,,43.52,VWS V14.01,2013-02-06 20:07:00,
2013-02-06 15:09:00,56.8,35.7,30.15,West,270,0.0,0.0,45,0.00,,,43.52,VWS V14.01,2013-02-06 20:09:00,
2013-02-06 15:12:00,56.8,35.7,30.16,WSW,248,0.0,0.0,45,0.00,,,43.52,VWS V14.01,2013-02-06 20:12:00,
2013-02-06 15:13:00,56.8,35.7,30.16,WSW,248,0.0,0.0,45,0.00,,,43.52,VWS V14.01,2013-02-06 20:13:00,
2013-02-06 15:15:00,56.8,35.7,30.16,NW,315,0.0,0.0,45,0.00,,,43.52,VWS V14.01,2013-02-06 20:15:00,
2013-02-06 15:17:00,56.8,35.7,30.16,South,180,0.0,0.0,45,0.00,,,43.52,VWS V14.01,2013-02-06 20:17:00,
2013-02-06 15:18:00,56.8,35.7,30.16,SSW,202,0.0,0.0,45,0.00,,,43.52,VWS V14.01,2013-02-06 20:18:00,
2013-02-06 15:20:00,56.8,35.7,30.16,South,180,0.0,0.0,45,0.00,,,43.52,VWS V14.01,2013-02-06 20:20:00,
2013-02-06 15:21:00,56.8,35.7,30.16,South,180,0.0,0.0,45,0.00,,,43.52,VWS V14.01,2013-02-06 20:21:00,
2013-02-06 15:23:00,56.8,35.7,30.16,SSW,202,0.0,0.0,45,0.00,,,43.52,VWS V14.01,2013-02-06 20:23:00,
2013-02-06 15:25:00,56.8,35.7,30.16,SSW,202,0.0,0.0,45,0.00,,,43.52,VWS V14.01,2013-02-06 20:25:00,
2013-02-06 15:26:00,56.8,35.7,30.16,SSW,202,0.0,0.0,45,0.00,,,43.52,VWS V14.01,2013-02-06 20:26:00,
2013-02-06 15:28:00,56.8,35.7,30.17,SSW,202,0.0,0.0,45,0.00,,,43.52,VWS V14.01,2013-02-06 20:28:00,
2013-02-06 15:31:00,56.4,35.3,30.17,NNW,338,0.0,0.0,45,0.00,,,43.52,VWS V14.01,2013-02-06 20:31:00,
2013-02-06 15:32:00,56.4,35.3,30.17,NNW,338,0.0,0.0,45,0.00,,,43.52,VWS V14.01,2013-02-06 20:32:00,
2013-02-06 15:34:00,56.4,34.8,30.17,NNW,338,0.0,0.0,44,0.00,,,43.52,VWS V14.01,2013-02-06 20:34:00,
2013-02-06 15:36:00,56.1,34.5,30.17,WNW,292,0.0,0.0,44,0.00,,,43.52,VWS V14.01,2013-02-06 20:36:00,
2013-02-06 15:37:00,56.1,34.5,30.17,WNW,292,0.0,0.0,44,0.00,,,43.52,VWS V14.01,2013-02-06 20:37:00,
2013-02-06 15:39:00,55.9,34.3,30.17,NW,315,0.0,3.5,44,0.00,,,43.52,VWS V14.01,2013-02-06 20:39:00,
2013-02-06 15:40:00,55.9,34.4,39.22,North,0,0.0,0.0,44,0.00,,,43.52,VWS V14.01,2013-02-06 20:40:00,
2013-02-06 15:41:00,55.9,34.3,30.17,NW,315,1.1,1.1,44,0.00,,,43.52,VWS V14.01,2013-02-06 20:41:00,
2013-02-06 15:42:00,55.7,34.1,30.17,WNW,292,0.0,1.1,44,0.00,,,43.52,VWS V14.01,2013-02-06 20:42:00,
2013-02-06 15:43:00,55.7,34.1,30.17,WNW,292,0.0,1.1,44,0.00,,,43.52,VWS V14.01,2013-02-06 20:43:00,
2013-02-06 15:44:00,55.5,34.0,30.17,West,270,0.0,1.1,44,0.00,,,43.52,VWS V14.01,2013-02-06 20:44:00,
2013-02-06 15:47:00,55.4,33.9,30.17,West,270,0.0,1.1,44,0.00,,,43.52,VWS V14.01,2013-02-06 20:47:00,
2013-02-06 15:48:00,55.4,33.9,30.17,West,270,0.0,1.1,44,0.00,,,43.52,VWS V14.01,2013-02-06 20:48:00,
2013-02-06 15:52:00,55.5,34.5,30.17,West,270,0.0,0.0,45,0.00,,,43.52,VWS V14.01,2013-02-06 20:52:00,
2013-02-06 15:53:00,55.7,34.7,30.17,West,270,0.0,0.0,45,0.00,,,43.52,VWS V14.01,2013-02-06 20:53:00,
2013-02-06 15:57:00,56.3,35.2,30.17,WNW,292,0.0,0.0,45,0.00,,,43.52,VWS V14.01,2013-02-06 20:57:00,
2013-02-06 15:58:00,56.3,35.2,30.17,WNW,292,0.0,0.0,45,0.00,,,43.52,VWS V14.01,2013-02-06 20:58:00,
2013-02-06 16:00:00,56.6,35.5,30.17,WNW,292,0.0,0.0,45,0.00,,,43.52,VWS V14.01,2013-02-06 21:00:00,
2013-02-06 16:03:00,57.3,35.6,30.17,West,270,0.0,0.0,44,0.00,,,43.52,VWS V14.01,2013-02-06 21:03:00,
2013-02-06 16:05:00,57.3,35.6,30.17,West,270,0.0,0.0,44,0.00,,,43.52,VWS V14.01,2013-02-06 21:05:00,
2013-02-06 16:08:00,57.0,34.8,30.18,West,270,0.0,0.0,43,0.00,,,43.52,VWS V14.01,2013-02-06 21:08:00,
2013-02-06 16:09:00,57.0,34.8,30.18,WNW,292,0.0,0.0,43,0.00,,,43.52,VWS V14.01,2013-02-06 21:09:00,
2013-02-06 16:10:00,56.4,34.2,30.17,NNW,338,0.0,0.0,43,0.00,,,43.52,VWS V14.01,2013-02-06 21:10:00,
2013-02-06 16:14:00,55.5,33.4,30.17,NNW,338,0.0,0.0,43,0.00,,,43.52,VWS V14.01,2013-02-06 21:14:00,
2013-02-06 16:15:00,55.5,33.4,30.17,NNW,338,0.0,0.0,43,0.00,,,43.52,VWS V14.01,2013-02-06 21:15:00,
2013-02-06 16:16:00,55.4,33.9,30.17,NNW,338,0.0,0.0,44,0.00,,,43.52,VWS V14.01,2013-02-06 21:16:00,
2013-02-06 16:20:00,55.2,33.7,30.17,NW,315,0.0,0.0,44,0.00,,,43.52,VWS V14.01,2013-02-06 21:20:00,
2013-02-06 16:22:00,55.0,33.5,30.18,NW,315,0.0,0.0,44,0.00,,,43.52,VWS V14.01,2013-02-06 21:22:00,
2013-02-06 16:23:00,55.0,33.5,30.18,NNW,338,0.0,0.0,44,0.00,,,43.52,VWS V14.01,2013-02-06 21:23:00,
2013-02-06 16:25:00,55.2,33.7,30.18,NW,315,0.0,0.0,44,0.00,,,43.52,VWS V14.01,2013-02-06 21:25:00,
2013-02-06 16:27:00,55.0,33.5,30.18,NW,315,0.0,0.0,44,0.00,,,43.52,VWS V14.01,2013-02-06 21:27:00,
2013-02-06 16:28:00,55.0,33.5,30.18,NW,315,0.0,0.0,44,0.00,,,43.52,VWS V14.01,2013-02-06 21:28:00,
2013-02-06 16:31:00,55.0,33.5,30.18,NW,315,0.0,0.0,44,0.00,,,43.52,VWS V14.01,2013-02-06 21:31:00,
2013-02-06 16:32:00,54.8,33.3,30.17,West,270,0.0,0.0,44,0.00,,,43.52,VWS V14.01,2013-02-06 21:32:00,
2013-02-06 16:40:00,54.5,33.0,30.18,NNW,338,0.0,0.0,44,0.00,,,43.52,VWS V14.01,2013-02-06 21:40:00,
2013-02-06 16:41:00,54.5,33.0,30.18,NNW,338,0.0,0.0,44,0.00,,,43.52,VWS V14.01,2013-02-06 21:41:00,
2013-02-06 16:45:00,53.9,33.1,30.18,East,90,0.0,0.0,45,0.00,,,43.52,VWS V14.01,2013-02-06 21:45:00,
2013-02-06 16:46:00,53.9,33.1,30.18,East,90,0.0,0.0,45,0.00,,,43.52,VWS V14.01,2013-02-06 21:46:00,
2013-02-06 16:51:00,53.7,32.9,30.18,ENE,68,0.0,0.0,45,0.00,,,43.52,VWS V14.01,2013-02-06 21:51:00,
2013-02-06 16:52:00,53.4,32.6,30.18,ENE,68,0.0,0.0,45,0.00,,,43.52,VWS V14.01,2013-02-06 21:52:00,
2013-02-06 16:53:00,53.4,32.6,30.18,ENE,68,0.0,0.0,45,0.00,,,43.52,VWS V14.01,2013-02-06 21:53:00,
2013-02-06 16:56:00,53.2,32.4,30.18,ENE,68,0.0,0.0,45,0.00,,,43.52,VWS V14.01,2013-02-06 21:56:00,
2013-02-06 16:57:00,53.2,32.4,30.18,ENE,68,0.0,0.0,45,0.00,,,43.52,VWS V14.01,2013-02-06 21:57:00,
2013-02-06 16:58:00,52.8,32.1,30.18,NW,315,0.0,0.0,45,0.00,,,43.52,VWS V14.01,2013-02-06 21:58:00,
2013-02-06 17:01:00,52.7,32.0,30.18,NW,315,0.0,0.0,45,0.00,,,43.52,VWS V14.01,2013-02-06 22:01:00,
2013-02-06 17:02:00,52.5,31.8,30.18,NW,315,0.0,0.0,45,0.00,,,43.52,VWS V14.01,2013-02-06 22:02:00,
2013-02-06 17:03:00,52.5,31.8,30.18,NW,315,0.0,0.0,45,0.00,,,43.52,VWS V14.01,2013-02-06 22:03:00,
2013-02-06 17:07:00,52.1,32.0,30.18,NNE,22,0.0,0.0,46,0.00,,,43.52,VWS V14.01,2013-02-06 22:07:00,
2013-02-06 17:08:00,51.9,32.3,30.18,NW,315,0.0,0.0,47,0.00,,,43.52,VWS V14.01,2013-02-06 22:08:00,
2013-02-06 17:09:00,51.9,32.3,30.18,NW,315,0.0,0.0,47,0.00,,,43.52,VWS V14.01,2013-02-06 22:09:00,
2013-02-06 17:12:00,51.4,31.9,30.19,NW,315,0.0,0.0,47,0.00,,,43.52,VWS V14.01,2013-02-06 22:12:00,
2013-02-06 17:13:00,51.2,31.7,30.19,NNE,22,0.0,0.0,47,0.00,,,43.52,VWS V14.01,2013-02-06 22:13:00,
2013-02-06 17:14:00,51.2,31.7,30.19,NNE,22,0.0,0.0,47,0.00,,,43.52,VWS V14.01,2013-02-06 22:14:00,
2013-02-06 17:17:00,50.7,31.7,30.19,NNE,22,0.0,0.0,48,0.00,,,43.52,VWS V14.01,2013-02-06 22:17:00,
2013-02-06 17:18:00,50.7,31.7,30.19,NNE,22,0.0,0.0,48,0.00,,,43.52,VWS V14.01,2013-02-06 22:18:00,
2013-02-06 17:19:00,50.7,31.7,30.19,NNE,22,0.0,0.0,48,0.00,,,43.52,VWS V14.01,2013-02-06 22:19:00,
2013-02-06 17:22:00,50.5,32.1,30.19,NNE,22,0.0,0.0,49,0.00,,,43.52,VWS V14.01,2013-02-06 22:22:00,
2013-02-06 17:23:00,50.5,32.1,30.19,NNE,22,0.0,0.0,49,0.00,,,43.52,VWS V14.01,2013-02-06 22:23:00,
2013-02-06 17:25:00,50.3,31.9,30.19,NNE,22,0.0,0.0,49,0.00,,,43.52,VWS V14.01,2013-02-06 22:25:00,
2013-02-06 17:28:00,50.0,32.1,30.19,NNE,22,0.0,0.0,50,0.00,,,43.52,VWS V14.01,2013-02-06 22:28:00,
2013-02-06 17:29:00,50.0,32.1,30.19,NNE,22,0.0,0.0,50,0.00,,,43.52,VWS V14.01,2013-02-06 22:29:00,
2013-02-06 17:30:00,49.8,31.9,30.19,NNE,22,0.0,0.0,50,0.00,,,43.52,VWS V14.01,2013-02-06 22:30:00,
2013-02-06 17:33:00,49.6,31.7,30.20,NNE,22,0.0,0.0,50,0.00,,,43.52,VWS V14.01,2013-02-06 22:33:00,
2013-02-06 17:35:00,49.2,31.9,30.19,NNE,22,0.0,0.0,51,0.00,,,43.52,VWS V14.01,2013-02-06 22:35:00,
2013-02-06 17:36:00,49.2,31.9,30.19,NNE,22,0.0,0.0,51,0.00,,,43.52,VWS V14.01,2013-02-06 22:36:00,
2013-02-06 17:39:00,48.9,31.1,30.20,NNE,22,0.0,0.0,50,0.00,,,43.52,VWS V14.01,2013-02-06 22:39:00,
2013-02-06 17:40:00,48.7,30.9,30.20,NNE,22,0.0,0.0,50,0.00,,,43.52,VWS V14.01,2013-02-06 22:40:00,
2013-02-06 17:42:00,48.7,30.9,30.20,NNE,22,0.0,0.0,50,0.00,,,43.52,VWS V14.01,2013-02-06 22:42:00,
2013-02-06 17:44:00,48.3,31.0,30.20,NNE,22,0.0,0.0,51,0.00,,,43.52,VWS V14.01,2013-02-06 22:44:00,
2013-02-06 17:46:00,48.0,30.8,30.21,NNE,22,0.0,0.0,51,0.00,,,43.52,VWS V14.01,2013-02-06 22:46:00,
2013-02-06 17:47:00,48.0,30.8,30.21,NNE,22,0.0,0.0,51,0.00,,,43.52,VWS V14.01,2013-02-06 22:47:00,
2013-02-06 17:49:00,47.8,30.6,30.21,NNE,22,0.0,0.0,51,0.00,,,43.52,VWS V14.01,2013-02-06 22:49:00,
2013-02-06 17:52:00,47.4,30.7,30.21,NNE,22,0.0,0.0,52,0.00,,,43.52,VWS V14.01,2013-02-06 22:52:00,
2013-02-06 17:53:00,47.4,30.7,30.21,NNE,22,0.0,0.0,52,0.00,,,43.52,VWS V14.01,2013-02-06 22:53:00,
2013-02-06 17:55:00,47.1,30.4,30.21,NNE,22,0.0,0.0,52,0.00,,,43.52,VWS V14.01,2013-02-06 22:55:00,
2013-02-06 17:58:00,46.7,30.5,30.21,NNE,22,0.0,0.0,53,0.00,,,43.52,VWS V14.01,2013-02-06 22:58:00,
2013-02-06 18:00:00,46.4,30.2,30.21,NNE,22,0.0,0.0,53,0.00,,,43.52,VWS V14.01,2013-02-06 23:00:00,
2013-02-06 18:03:00,46.2,30.0,30.21,NNE,22,0.0,0.0,53,0.00,,,43.52,VWS V14.01,2013-02-06 23:03:00,
2013-02-06 18:04:00,46.0,29.8,30.21,NNE,22,0.0,0.0,53,0.00,,,43.52,VWS V14.01,2013-02-06 23:04:00,
2013-02-06 18:05:00,46.0,30.3,30.21,NNE,22,0.0,0.0,54,0.00,,,43.52,VWS V14.01,2013-02-06 23:05:00,
2013-02-06 18:06:00,46.0,30.3,30.21,NNE,22,0.0,0.0,54,0.00,,,43.52,VWS V14.01,2013-02-06 23:06:00,
2013-02-06 18:08:00,45.6,29.9,30.21,NNE,22,0.0,0.0,54,0.00,,,43.52,VWS V14.01,2013-02-06 23:08:00,
2013-02-06 18:10:00,45.1,29.5,30.21,NNE,22,0.0,0.0,54,0.00,,,43.52,VWS V14.01,2013-02-06 23:10:00,
2013-02-06 18:11:00,45.1,29.5,30.21,NNE,22,0.0,0.0,54,0.00,,,43.52,VWS V14.01,2013-02-06 23:11:00,
2013-02-06 18:12:00,45.1,29.5,30.21,NNE,22,0.0,0.0,54,0.00,,,43.52,VWS V14.01,2013-02-06 23:12:00,
2013-02-06 18:13:00,44.9,29.7,30.22,NNE,22,0.0,0.0,55,0.00,,,43.52,VWS V14.01,2013-02-06 23:13:00,
2013-02-06 18:15:00,44.7,29.5,30.21,NNE,22,0.0,0.0,55,0.00,,,43.52,VWS V14.01,2013-02-06 23:15:00,
2013-02-06 18:17:00,44.6,29.5,30.21,NNE,22,0.0,0.0,55,0.00,,,43.52,VWS V14.01,2013-02-06 23:17:00,
2013-02-06 18:18:00,44.4,29.3,30.22,NNE,22,0.0,0.0,55,0.00,,,43.52,VWS V14.01,2013-02-06 23:18:00,
2013-02-06 18:21:00,43.8,29.1,30.22,NNE,22,0.0,0.0,56,0.00,,,43.52,VWS V14.01,2013-02-06 23:21:00,
2013-02-06 18:22:00,43.8,29.1,30.22,NNE,22,0.0,0.0,56,0.00,,,43.52,VWS V14.01,2013-02-06 23:22:00,
2013-02-06 18:23:00,43.7,29.0,30.22,NNE,22,0.0,0.0,56,0.00,,,43.52,VWS V14.01,2013-02-06 23:23:00,
2013-02-06 18:27:00,43.5,29.3,30.22,NNE,22,0.0,0.0,57,0.00,,,43.52,VWS V14.01,2013-02-06 23:27:00,
2013-02-06 18:28:00,43.5,29.3,30.22,NNE,22,0.0,0.0,57,0.00,,,43.52,VWS V14.01,2013-02-06 23:28:00,
2013-02-06 18:29:00,43.3,29.1,30.22,NNE,22,0.0,0.0,57,0.00,,,43.52,VWS V14.01,2013-02-06 23:29:00,
2013-02-06 18:32:00,42.9,29.2,30.22,NNE,22,0.0,0.0,58,0.00,,,43.52,VWS V14.01,2013-02-06 23:32:00,
2013-02-06 18:33:00,42.9,29.2,30.22,NNE,22,0.0,0.0,58,0.00,,,43.52,VWS V14.01,2013-02-06 23:33:00,
2013-02-06 18:34:00,42.6,28.9,30.22,NE,45,0.0,0.0,58,0.00,,,43.52,VWS V14.01,2013-02-06 23:34:00,
2013-02-06 18:38:00,42.6,29.7,30.23,NE,45,0.0,0.0,60,0.00,,,43.52,VWS V14.01,2013-02-06 23:38:00,
2013-02-06 18:40:00,42.6,30.1,30.23,ENE,68,0.0,0.0,61,0.00,,,43.52,VWS V14.01,2013-02-06 23:40:00,
2013-02-06 18:44:00,43.5,30.5,30.24,ENE,68,0.0,8.5,60,0.00,,,43.52,VWS V14.01,2013-02-06 23:44:00,
2013-02-06 18:45:00,43.5,30.5,30.24,NE,45,0.0,8.5,60,0.00,,,43.52,VWS V14.01,2013-02-06 23:45:00,
2013-02-06 18:50:00,44.0,31.0,30.24,NE,45,0.0,8.5,60,0.00,,,43.52,VWS V14.01,2013-02-06 23:50:00,
2013-02-06 18:51:00,44.2,31.2,30.24,NNE,22,0.0,0.0,60,0.00,,,43.52,VWS V14.01,2013-02-06 23:51:00,
2013-02-06 18:55:00,44.4,31.4,30.24,ENE,68,0.0,0.0,60,0.00,,,43.52,VWS V14.01,2013-02-06 23:55:00,
2013-02-06 18:56:00,44.4,31.4,30.24,ENE,68,0.0,0.0,60,0.00,,,43.52,VWS V14.01,2013-02-06 23:56:00,
2013-02-06 19:01:00,44.2,30.8,30.25,East,90,0.0,0.0,59,0.00,,,43.52,VWS V14.01,2013-02-07 00:01:00,
2013-02-06 19:02:00,44.2,31.2,30.25,East,90,0.0,0.0,60,0.00,,,43.52,VWS V14.01,2013-02-07 00:02:00,
2013-02-06 19:03:00,44.2,30.8,30.25,ENE,68,0.0,0.0,59,0.00,,,43.52,VWS V14.01,2013-02-07 00:03:00,
2013-02-06 19:07:00,43.7,30.3,30.26,ENE,68,0.0,0.0,59,0.00,,,43.52,VWS V14.01,2013-02-07 00:07:00,
2013-02-06 19:08:00,43.7,30.3,30.26,ENE,68,0.0,0.0,59,0.00,,,43.52,VWS V14.01,2013-02-07 00:08:00,
2013-02-06 19:09:00,43.7,30.3,30.26,ENE,68,0.0,0.0,59,0.00,,,43.52,VWS V14.01,2013-02-07 00:09:00,
2013-02-06 19:12:00,43.5,30.1,30.26,East,90,0.0,0.0,59,0.00,,,43.52,VWS V14.01,2013-02-07 00:12:00,
2013-02-06 19:13:00,43.3,30.4,30.26,NE,45,4.2,4.2,60,0.00,,,43.52,VWS V14.01,2013-02-07 00:13:00,
2013-02-06 19:14:00,43.3,30.4,30.26,NE,45,4.2,4.2,60,0.00,,,43.52,VWS V14.01,2013-02-07 00:14:00,
2013-02-06 19:17:00,43.3,30.4,30.26,ENE,68,0.0,4.2,60,0.00,,,43.52,VWS V14.01,2013-02-07 00:17:00,
2013-02-06 19:19:00,43.1,30.2,30.26,ENE,68,0.0,4.2,60,0.00,,,43.52,VWS V14.01,2013-02-07 00:19:00,
2013-02-06 19:20:00,43.1,30.2,30.26,NE,45,0.0,0.0,60,0.00,,,43.52,VWS V14.01,2013-02-07 00:20:00,
2013-02-06 19:23:00,42.9,30.0,30.26,NE,45,0.0,0.0,60,0.00,,,43.52,VWS V14.01,2013-02-07 00:23:00,
2013-02-06 19:24:00,42.9,30.0,30.26,NE,45,0.0,0.0,60,0.00,,,43.52,VWS V14.01,2013-02-07 00:24:00,
2013-02-06 19:25:00,42.9,30.0,30.26,NE,45,0.0,0.0,60,0.00,,,43.52,VWS V14.01,2013-02-07 00:25:00,
2013-02-06 19:28:00,42.9,30.0,30.27,NE,45,0.0,0.0,60,0.00,,,43.52,VWS V14.01,2013-02-07 00:28:00,
2013-02-06 19:30:00,42.6,30.1,30.27,ENE,68,0.0,0.0,61,0.00,,,43.52,VWS V14.01,2013-02-07 00:30:00,
2013-02-06 19:33:00,42.6,30.1,30.27,ENE,68,0.0,0.0,61,0.00,,,43.52,VWS V14.01,2013-02-07 00:33:00,
2013-02-06 19:35:00,42.6,30.1,30.27,ENE,68,0.0,0.0,61,0.00,,,43.52,VWS V14.01,2013-02-07 00:35:00,
2013-02-06 19:36:00,42.4,29.9,30.27,ENE,68,0.0,0.0,61,0.00,,,43.52,VWS V14.01,2013-02-07 00:36:00,
2013-02-06 19:38:00,42.4,29.9,30.28,ENE,68,0.0,0.0,61,0.00,,,43.52,VWS V14.01,2013-02-07 00:38:00,
2013-02-06 19:40:00,42.4,29.9,30.28,NE,45,0.0,0.0,61,0.00,,,43.52,VWS V14.01,2013-02-07 00:40:00,
2013-02-06 19:41:00,42.4,29.9,30.28,ENE,68,0.0,0.0,61,0.00,,,43.52,VWS V14.01,2013-02-07 00:41:00,
2013-02-06 19:42:00,42.4,29.9,30.28,ENE,68,0.0,0.0,61,0.00,,,43.52,VWS V14.01,2013-02-07 00:42:00,
2013-02-06 19:44:00,42.4,29.9,30.28,ENE,68,0.0,0.0,61,0.00,,,43.52,VWS V14.01,2013-02-07 00:44:00,
2013-02-06 19:46:00,42.2,30.1,30.28,ENE,68,0.0,0.0,62,0.00,,,43.52,VWS V14.01,2013-02-07 00:46:00,
2013-02-06 19:47:00,42.2,30.1,30.28,ENE,68,0.0,0.0,62,0.00,,,43.52,VWS V14.01,2013-02-07 00:47:00,
2013-02-06 19:48:00,42.0,29.9,30.28,NE,45,0.0,0.0,62,0.00,,,43.52,VWS V14.01,2013-02-07 00:48:00,
2013-02-06 19:50:00,42.0,29.9,30.28,NE,45,0.0,0.0,62,0.00,,,43.52,VWS V14.01,2013-02-07 00:50:00,
2013-02-06 19:52:00,42.0,29.9,30.28,East,90,0.0,0.0,62,0.00,,,43.52,VWS V14.01,2013-02-07 00:52:00,
2013-02-06 19:54:00,42.0,29.9,30.28,ESE,112,0.0,0.0,62,0.00,,,43.52,VWS V14.01,2013-02-07 00:54:00,
2013-02-06 19:56:00,42.0,29.9,30.28,NE,45,0.0,0.0,62,0.00,,,43.52,VWS V14.01,2013-02-07 00:56:00,
2013-02-06 19:58:00,41.9,29.9,30.28,NE,45,0.0,0.0,62,0.00,,,43.52,VWS V14.01,2013-02-07 00:58:00,
2013-02-06 19:59:00,42.0,29.9,30.29,NE,45,0.0,0.0,62,0.00,,,43.52,VWS V14.01,2013-02-07 00:59:00,
2013-02-06 20:00:00,41.9,29.9,30.29,NE,45,0.0,0.0,62,0.00,,,43.52,VWS V14.01,2013-02-07 01:00:00,
2013-02-06 20:01:00,41.9,29.9,30.29,NE,45,0.0,0.0,62,0.00,,,43.52,VWS V14.01,2013-02-07 01:01:00,
2013-02-06 20:03:00,41.7,29.7,30.29,ENE,68,0.0,0.0,62,0.00,,,43.52,VWS V14.01,2013-02-07 01:03:00,
2013-02-06 20:04:00,41.7,29.7,30.29,ENE,68,0.0,0.0,62,0.00,,,43.52,VWS V14.01,2013-02-07 01:04:00,
2013-02-06 20:05:00,41.7,29.7,30.29,ENE,68,0.0,0.0,62,0.00,,,43.52,VWS V14.01,2013-02-07 01:05:00,
2013-02-06 20:06:00,41.7,29.7,30.29,ENE,68,0.0,0.0,62,0.00,,,43.52,VWS V14.01,2013-02-07 01:06:00,
2013-02-06 20:08:00,41.5,29.5,30.29,ENE,68,0.0,0.0,62,0.00,,,43.52,VWS V14.01,2013-02-07 01:08:00,
2013-02-06 20:10:00,41.5,29.5,30.30,ENE,68,0.0,0.0,62,0.00,,,43.52,VWS V14.01,2013-02-07 01:10:00,
2013-02-06 20:12:00,41.3,29.3,30.30,ENE,68,0.0,0.0,62,0.00,,,43.52,VWS V14.01,2013-02-07 01:12:00,
2013-02-06 20:14:00,41.1,29.1,30.30,ENE,68,0.0,0.0,62,0.00,,,43.52,VWS V14.01,2013-02-07 01:14:00,
2013-02-06 20:15:00,41.0,29.0,30.31,ENE,68,0.0,0.0,62,0.00,,,43.52,VWS V14.01,2013-02-07 01:15:00,
2013-02-06 20:17:00,40.8,28.8,30.31,NE,45,0.0,0.0,62,0.00,,,43.52,VWS V14.01,2013-02-07 01:17:00,
2013-02-06 20:20:00,40.6,29.0,30.31,NE,45,0.0,0.0,63,0.00,,,43.52,VWS V14.01,2013-02-07 01:20:00,
2013-02-06 20:22:00,40.6,29.4,30.31,ENE,68,0.0,0.0,64,0.00,,,43.52,VWS V14.01,2013-02-07 01:22:00,
2013-02-06 20:24:00,40.4,29.2,30.31,ENE,68,0.0,0.0,64,0.00,,,43.52,VWS V14.01,2013-02-07 01:24:00,
2013-02-06 20:25:00,40.4,29.2,30.31,ENE,68,0.0,0.0,64,0.00,,,43.52,VWS V14.01,2013-02-07 01:25:00,
2013-02-06 20:26:00,40.4,29.2,30.31,ENE,68,0.0,0.0,64,0.00,,,43.52,VWS V14.01,2013-02-07 01:26:00,
2013-02-06 20:27:00,40.2,29.0,30.31,East,90,0.0,0.0,64,0.00,,,43.52,VWS V14.01,2013-02-07 01:27:00,
2013-02-06 20:29:00,40.2,29.4,30.31,ENE,68,0.0,0.0,65,0.00,,,43.52,VWS V14.01,2013-02-07 01:29:00,
2013-02-06 20:30:00,40.2,29.4,30.31,ENE,68,0.0,0.0,65,0.00,,,43.52,VWS V14.01,2013-02-07 01:30:00,
2013-02-06 20:31:00,40.1,29.3,30.31,ENE,68,0.0,0.0,65,0.00,,,43.52,VWS V14.01,2013-02-07 01:31:00,
2013-02-06 20:32:00,40.1,29.3,30.31,ENE,68,0.0,0.0,65,0.00,,,43.52,VWS V14.01,2013-02-07 01:32:00,
2013-02-06 20:34:00,39.9,29.5,30.31,NE,45,0.0,0.0,66,0.00,,,43.52,VWS V14.01,2013-02-07 01:34:00,
2013-02-06 20:35:00,39.9,29.5,30.31,ENE,68,0.0,0.0,66,0.00,,,43.52,VWS V14.01,2013-02-07 01:35:00,
2013-02-06 20:36:00,39.9,29.5,30.31,East,90,0.0,0.0,66,0.00,,,43.52,VWS V14.01,2013-02-07 01:36:00,
2013-02-06 20:38:00,39.9,29.9,30.31,SE,135,0.0,0.0,67,0.00,,,43.52,VWS V14.01,2013-02-07 01:38:00,
2013-02-06 20:40:00,39.9,29.9,30.31,NE,45,0.0,0.0,67,0.00,,,43.52,VWS V14.01,2013-02-07 01:40:00,
2013-02-06 20:41:00,39.9,29.9,30.31,NE,45,0.0,0.0,67,0.00,,,43.52,VWS V14.01,2013-02-07 01:41:00,
2013-02-06 20:43:00,39.9,30.2,30.31,ENE,68,0.0,0.0,68,0.00,,,43.52,VWS V14.01,2013-02-07 01:43:00,
2013-02-06 20:45:00,39.9,29.9,30.32,ENE,68,0.0,0.0,67,0.00,,,43.52,VWS V14.01,2013-02-07 01:45:00,
2013-02-06 20:48:00,39.7,29.7,30.32,SE,135,0.0,0.0,67,0.00,,,43.52,VWS V14.01,2013-02-07 01:48:00,
2013-02-06 20:49:00,39.5,29.8,30.32,SE,135,0.0,0.0,68,0.00,,,43.52,VWS V14.01,2013-02-07 01:49:00,
2013-02-06 20:50:00,39.5,29.8,30.32,SE,135,0.0,0.0,68,0.00,,,43.52,VWS V14.01,2013-02-07 01:50:00,
2013-02-06 20:53:00,39.3,29.6,30.32,SE,135,0.0,0.0,68,0.00,,,43.52,VWS V14.01,2013-02-07 01:53:00,
2013-02-06 20:54:00,39.3,29.6,30.32,SE,135,0.0,0.0,68,0.00,,,43.52,VWS V14.01,2013-02-07 01:54:00,
2013-02-06 20:55:00,39.3,29.6,30.32,SE,135,0.0,0.0,68,0.00,,,43.52,VWS V14.01,2013-02-07 01:55:00,
2013-02-06 20:59:00,39.0,29.4,30.32,SE,135,0.0,0.0,68,0.00,,,43.52,VWS V14.01,2013-02-07 01:59:00,
2013-02-06 21:00:00,38.8,29.5,30.32,SE,135,0.0,0.0,69,0.00,,,43.52,VWS V14.01,2013-02-07 02:00:00,
2013-02-06 21:01:00,38.8,29.5,30.32,SE,135,0.0,0.0,69,0.00,,,43.52,VWS V14.01,2013-02-07 02:01:00,
2013-02-06 21:04:00,38.4,29.1,30.32,SE,135,0.0,0.0,69,0.00,,,43.52,VWS V14.01,2013-02-07 02:04:00,
2013-02-06 21:05:00,38.4,29.1,30.32,SE,135,0.0,0.0,69,0.00,,,43.52,VWS V14.01,2013-02-07 02:05:00,
2013-02-06 21:06:00,38.3,29.0,30.32,SE,135,0.0,0.0,69,0.00,,,43.52,VWS V14.01,2013-02-07 02:06:00,
2013-02-06 21:07:00,38.3,29.0,30.32,SE,135,0.0,0.0,69,0.00,,,43.52,VWS V14.01,2013-02-07 02:07:00,
2013-02-06 21:09:00,38.3,29.0,30.32,SE,135,0.0,0.0,69,0.00,,,43.52,VWS V14.01,2013-02-07 02:09:00,
2013-02-06 21:11:00,37.9,28.6,30.32,SE,135,0.0,0.0,69,0.00,,,43.52,VWS V14.01,2013-02-07 02:11:00,
2013-02-06 21:12:00,37.9,29.0,30.32,SE,135,0.0,0.0,70,0.00,,,43.52,VWS V14.01,2013-02-07 02:12:00,
2013-02-06 21:13:00,37.9,29.0,30.32,SE,135,0.0,0.0,70,0.00,,,43.52,VWS V14.01,2013-02-07 02:13:00,
2013-02-06 21:15:00,37.7,28.8,30.32,SE,135,0.0,0.0,70,0.00,,,43.52,VWS V14.01,2013-02-07 02:15:00,
2013-02-06 21:17:00,37.5,28.6,30.33,SE,135,0.0,0.0,70,0.00,,,43.52,VWS V14.01,2013-02-07 02:17:00,
2013-02-06 21:18:00,37.4,28.5,30.33,SE,135,0.0,0.0,70,0.00,,,43.52,VWS V14.01,2013-02-07 02:18:00,
2013-02-06 21:21:00,37.2,28.3,30.33,SE,135,0.0,0.0,70,0.00,,,43.52,VWS V14.01,2013-02-07 02:21:00,
2013-02-06 21:22:00,37.2,28.3,30.33,SE,135,0.0,0.0,70,0.00,,,43.52,VWS V14.01,2013-02-07 02:22:00,
2013-02-06 21:23:00,37.2,28.3,30.33,SE,135,0.0,0.0,70,0.00,,,43.52,VWS V14.01,2013-02-07 02:23:00,
2013-02-06 21:24:00,37.0,28.1,30.33,NE,45,0.0,0.0,70,0.00,,,43.52,VWS V14.01,2013-02-07 02:24:00,
2013-02-06 21:26:00,37.0,28.5,30.33,NE,45,0.0,0.0,71,0.00,,,43.52,VWS V14.01,2013-02-07 02:26:00,
2013-02-06 21:28:00,36.8,28.3,30.33,NE,45,0.0,0.0,71,0.00,,,43.52,VWS V14.01,2013-02-07 02:28:00,
2013-02-06 21:29:00,36.8,28.3,30.33,NE,45,0.0,0.0,71,0.00,,,43.52,VWS V14.01,2013-02-07 02:29:00,
2013-02-06 21:31:00,36.6,28.4,30.33,NE,45,0.0,0.0,72,0.00,,,43.52,VWS V14.01,2013-02-07 02:31:00,
2013-02-06 21:33:00,36.5,28.4,30.33,NE,45,0.0,0.0,72,0.00,,,43.52,VWS V14.01,2013-02-07 02:33:00,
2013-02-06 21:34:00,36.5,28.4,30.33,NE,45,0.0,0.0,72,0.00,,,43.52,VWS V14.01,2013-02-07 02:34:00,
2013-02-06 21:38:00,36.3,28.1,30.33,NE,45,0.0,0.0,72,0.00,,,43.52,VWS V14.01,2013-02-07 02:38:00,
2013-02-06 21:39:00,36.3,28.1,30.33,NE,45,0.0,0.0,72,0.00,,,43.52,VWS V14.01,2013-02-07 02:39:00,
2013-02-06 21:40:00,36.1,28.0,39.22,North,0,0.0,0.0,72,0.00,,,43.52,VWS V14.01,2013-02-07 02:40:00,
2013-02-06 21:44:00,36.1,28.3,30.33,NE,45,0.0,0.0,73,0.00,,,43.52,VWS V14.01,2013-02-07 02:44:00,
2013-02-06 21:45:00,36.1,28.3,30.33,NE,45,0.0,0.0,73,0.00,,,43.52,VWS V14.01,2013-02-07 02:45:00,
2013-02-06 21:47:00,35.9,28.1,30.33,NE,45,0.0,0.0,73,0.00,,,43.52,VWS V14.01,2013-02-07 02:47:00,
2013-02-06 21:49:00,35.9,28.1,30.33,NE,45,0.0,0.0,73,0.00,,,43.52,VWS V14.01,2013-02-07 02:49:00,
2013-02-06 21:50:00,35.7,27.9,30.33,NE,45,0.0,0.0,73,0.00,,,43.52,VWS V14.01,2013-02-07 02:50:00,
2013-02-06 21:56:00,35.7,28.2,30.33,NE,45,0.0,0.0,74,0.00,,,43.52,VWS V14.01,2013-02-07 02:56:00,
2013-02-06 22:01:00,35.7,28.2,30.33,ENE,68,0.0,0.0,74,0.00,,,43.52,VWS V14.01,2013-02-07 03:01:00,
2013-02-06 22:02:00,35.7,28.2,30.34,ENE,68,0.0,0.0,74,0.00,,,43.52,VWS V14.01,2013-02-07 03:02:00,
2013-02-06 22:06:00,35.7,28.2,30.34,ENE,68,0.0,0.0,74,0.00,,,43.52,VWS V14.01,2013-02-07 03:06:00,
2013-02-06 22:07:00,35.7,28.2,30.34,ENE,68,0.0,0.0,74,0.00,,,43.52,VWS V14.01,2013-02-07 03:07:00,
2013-02-06 22:12:00,35.4,28.0,30.34,ENE,68,0.0,0.0,74,0.00,,,43.52,VWS V14.01,2013-02-07 03:12:00,
2013-02-06 22:13:00,35.4,28.0,30.34,ENE,68,0.0,0.0,74,0.00,,,43.52,VWS V14.01,2013-02-07 03:13:00,
2013-02-06 22:14:00,35.4,28.0,30.34,ENE,68,0.0,0.0,74,0.00,,,43.52,VWS V14.01,2013-02-07 03:14:00,
2013-02-06 22:17:00,35.2,27.8,30.34,ENE,68,0.0,0.0,74,0.00,,,43.52,VWS V14.01,2013-02-07 03:17:00,
2013-02-06 22:18:00,35.2,27.8,30.34,ENE,68,0.0,0.0,74,0.00,,,43.52,VWS V14.01,2013-02-07 03:18:00,
2013-02-06 22:19:00,35.2,27.8,30.34,ENE,68,0.0,0.0,74,0.00,,,43.52,VWS V14.01,2013-02-07 03:19:00,
2013-02-06 22:23:00,34.8,27.0,30.34,ENE,68,0.0,0.0,73,0.00,,,43.52,VWS V14.01,2013-02-07 03:23:00,
2013-02-06 22:24:00,34.8,27.0,30.34,East,90,0.0,0.0,73,0.00,,,43.52,VWS V14.01,2013-02-07 03:24:00,
2013-02-06 22:28:00,34.8,27.0,30.34,East,90,0.0,0.0,73,0.00,,,43.52,VWS V14.01,2013-02-07 03:28:00,
2013-02-06 22:29:00,34.7,27.0,30.34,East,90,0.0,0.0,73,0.00,,,43.52,VWS V14.01,2013-02-07 03:29:00,
2013-02-06 22:34:00,34.7,27.3,30.34,East,90,0.0,0.0,74,0.00,,,43.52,VWS V14.01,2013-02-07 03:34:00,
2013-02-06 22:35:00,34.7,27.3,30.34,East,90,0.0,0.0,74,0.00,,,43.52,VWS V14.01,2013-02-07 03:35:00,
2013-02-06 22:36:00,34.5,27.1,30.34,East,90,0.0,0.0,74,0.00,,,43.52,VWS V14.01,2013-02-07 03:36:00,
2013-02-06 22:39:00,34.3,26.9,30.33,East,90,0.0,0.0,74,0.00,,,43.52,VWS V14.01,2013-02-07 03:39:00,
2013-02-06 22:40:00,34.3,26.9,30.33,East,90,0.0,0.0,74,0.00,,,43.52,VWS V14.01,2013-02-07 03:40:00,
2013-02-06 22:41:00,34.3,26.9,30.33,East,90,0.0,0.0,74,0.00,,,43.52,VWS V14.01,2013-02-07 03:41:00,
2013-02-06 22:45:00,34.3,27.2,30.33,East,90,0.0,0.0,75,0.00,,,43.52,VWS V14.01,2013-02-07 03:45:00,
2013-02-06 22:47:00,34.3,27.2,30.33,East,90,0.0,0.0,75,0.00,,,43.52,VWS V14.01,2013-02-07 03:47:00,
2013-02-06 22:50:00,34.1,27.0,30.33,East,90,0.0,0.0,75,0.00,,,43.52,VWS V14.01,2013-02-07 03:50:00,
2013-02-06 22:52:00,33.9,26.8,30.33,East,90,0.0,0.0,75,0.00,,,43.52,VWS V14.01,2013-02-07 03:52:00,
2013-02-06 22:55:00,33.9,26.8,30.33,ESE,112,0.0,0.0,75,0.00,,,43.52,VWS V14.01,2013-02-07 03:55:00,
2013-02-06 22:56:00,33.8,26.7,30.33,ESE,112,0.0,0.0,75,0.00,,,43.52,VWS V14.01,2013-02-07 03:56:00,
2013-02-06 22:57:00,33.8,26.7,30.33,ESE,112,0.0,0.0,75,0.00,,,43.52,VWS V14.01,2013-02-07 03:57:00,
2013-02-06 23:00:00,33.6,26.5,30.33,ESE,112,0.0,0.0,75,0.00,,,43.52,VWS V14.01,2013-02-07 04:00:00,
2013-02-06 23:01:00,33.6,26.5,30.33,ESE,112,0.0,0.0,75,0.00,,,43.52,VWS V14.01,2013-02-07 04:01:00,
2013-02-06 23:02:00,33.6,26.5,30.33,ESE,112,0.0,0.0,75,0.00,,,43.52,VWS V14.01,2013-02-07 04:02:00,
2013-02-06 23:05:00,33.6,26.5,30.33,ESE,112,0.0,0.0,75,0.00,,,43.52,VWS V14.01,2013-02-07 04:05:00,
2013-02-06 23:06:00,33.6,26.5,30.33,ESE,112,0.0,0.0,75,0.00,,,43.52,VWS V14.01,2013-02-07 04:06:00,
2013-02-06 23:07:00,33.6,26.5,30.33,ESE,112,0.0,0.0,75,0.00,,,43.52,VWS V14.01,2013-02-07 04:07:00,
2013-02-06 23:08:00,33.6,26.5,30.33,ESE,112,0.0,0.0,75,0.00,,,43.52,VWS V14.01,2013-02-07 04:08:00,
2013-02-06 23:11:00,33.4,26.3,30.33,ESE,112,0.0,0.0,75,0.00,,,43.52,VWS V14.01,2013-02-07 04:11:00,
2013-02-06 23:12:00,33.4,26.3,30.33,ESE,112,0.0,0.0,75,0.00,,,43.52,VWS V14.01,2013-02-07 04:12:00,
2013-02-06 23:13:00,33.2,26.1,30.33,ESE,112,0.0,0.0,75,0.00,,,43.52,VWS V14.01,2013-02-07 04:13:00,
2013-02-06 23:16:00,33.0,26.3,30.34,ESE,112,0.0,0.0,76,0.00,,,43.52,VWS V14.01,2013-02-07 04:16:00,
2013-02-06 23:17:00,33.0,26.3,30.34,ESE,112,0.0,0.0,76,0.00,,,43.52,VWS V14.01,2013-02-07 04:17:00,
2013-02-06 23:18:00,33.0,26.3,30.34,ESE,112,0.0,0.0,76,0.00,,,43.52,VWS V14.01,2013-02-07 04:18:00,
2013-02-06 23:22:00,32.9,26.2,30.34,ESE,112,0.0,0.0,76,0.00,,,43.52,VWS V14.01,2013-02-07 04:22:00,
2013-02-06 23:23:00,32.9,26.2,30.34,ESE,112,0.0,0.0,76,0.00,,,43.52,VWS V14.01,2013-02-07 04:23:00,
2013-02-06 23:27:00,32.7,26.0,30.34,ESE,112,0.0,0.0,76,0.00,,,43.52,VWS V14.01,2013-02-07 04:27:00,
2013-02-06 23:28:00,32.7,26.0,30.33,ESE,112,0.0,0.0,76,0.00,,,43.52,VWS V14.01,2013-02-07 04:28:00,
2013-02-06 23:29:00,32.7,26.0,30.33,ESE,112,0.0,0.0,76,0.00,,,43.52,VWS V14.01,2013-02-07 04:29:00,
2013-02-06 23:30:00,32.5,25.8,30.33,ESE,112,0.0,0.0,76,0.00,,,43.52,VWS V14.01,2013-02-07 04:30:00,
2013-02-06 23:33:00,32.5,25.8,30.33,ESE,112,0.0,0.0,76,0.00,,,43.52,VWS V14.01,2013-02-07 04:33:00,
2013-02-06 23:34:00,32.5,25.8,30.33,ESE,112,0.0,0.0,76,0.00,,,43.52,VWS V14.01,2013-02-07 04:34:00,
2013-02-06 23:35:00,32.3,25.6,30.33,ESE,112,0.0,0.0,76,0.00,,,43.52,VWS V14.01,2013-02-07 04:35:00,
2013-02-06 23:38:00,32.1,25.7,30.34,ESE,112,0.0,0.0,77,0.00,,,43.52,VWS V14.01,2013-02-07 04:38:00,
2013-02-06 23:40:00,32.1,25.7,30.34,ESE,112,0.0,0.0,77,0.00,,,43.52,VWS V14.01,2013-02-07 04:40:00,
2013-02-06 23:41:00,32.1,25.7,30.33,ESE,112,0.0,0.0,77,0.00,,,43.52,VWS V14.01,2013-02-07 04:41:00,
2013-02-06 23:44:00,32.1,25.7,30.33,ESE,112,0.0,0.0,77,0.00,,,43.52,VWS V14.01,2013-02-07 04:44:00,
2013-02-06 23:45:00,32.1,25.7,30.33,ESE,112,0.0,0.0,77,0.00,,,43.52,VWS V14.01,2013-02-07 04:45:00,
2013-02-06 23:46:00,31.8,25.4,30.33,ESE,112,0.0,0.0,77,0.00,,,43.52,VWS V14.01,2013-02-07 04:46:00,
2013-02-06 23:49:00,31.8,25.4,30.34,ESE,112,0.0,0.0,77,0.00,,,43.52,VWS V14.01,2013-02-07 04:49:00,
2013-02-06 23:50:00,31.8,25.4,30.34,ESE,112,0.0,0.0,77,0.00,,,43.52,VWS V14.01,2013-02-07 04:50:00,
2013-02-06 23:51:00,31.8,25.4,30.34,ESE,112,0.0,0.0,77,0.00,,,43.52,VWS V14.01,2013-02-07 04:51:00,
2013-02-06 23:55:00,31.8,25.4,30.34,ESE,112,0.0,0.0,77,0.00,,,43.52,VWS V14.01,2013-02-07 04:55:00,
2013-02-06 23:56:00,31.8,25.4,30.34,ESE,112,0.0,0.0,77,0.00,,,43.52,VWS V14.01,2013-02-07 04:56:00,
2013-02-06 23:57:00,31.8,25.4,30.34,ESE,112,0.0,0.0,77,0.00,,,43.52,VWS V14.01,2013-02-07 04:57:00,